Observation data for Sweetwater on 07/11/2018      Previous  Date       Current Mesonet Observations  Soil Data  Daily Summary Page  Observations in Plain Language
KSW1 110501Z 13007KT 23/20 A3013 RMK A01 T02300196  RH  081%=      5-min Rain = 0
KSW1 110502Z 13007KT 23/20 A3013 RMK A01 T02300196  RH  081%=      5-min Rain = 0
KSW1 110503Z 13008KT 23/20 A3013 RMK A01 T02290197  RH  082%=      5-min Rain = 0
KSW1 110504Z 13007KT 23/20 A3013 RMK A01 T02290196  RH  082%=      5-min Rain = 0
KSW1 110505Z 13008KT 23/20 A3013 RMK A01 T02290196  RH  082%=      5-min Rain = 0
KSW1 110506Z 12007KT 23/20 A3013 RMK A01 T02290196  RH  082%=      5-min Rain = 0
KSW1 110507Z 13008KT 23/20 A3013 RMK A01 T02290196  RH  081%=      5-min Rain = 0
KSW1 110508Z 12008KT 23/20 A3013 RMK A01 T02290196  RH  081%=      5-min Rain = 0
KSW1 110509Z 12007KT 23/20 A3013 RMK A01 T02290196  RH  081%=      5-min Rain = 0
KSW1 110510Z 12008KT 23/20 A3013 RMK A01 T02290196  RH  082%=      5-min Rain = 0
KSW1 110511Z 12009KT 23/20 A3013 RMK A01 T02280195  RH  082%=      5-min Rain = 0
KSW1 110512Z 12009KT 23/20 A3013 RMK A01 T02280196  RH  082%=      5-min Rain = 0
KSW1 110513Z 12009KT 23/20 A3013 RMK A01 T02280196  RH  082%=      5-min Rain = 0
KSW1 110514Z 12008KT 23/20 A3013 RMK A01 T02280195  RH  082%=      5-min Rain = 0
KSW1 110515Z 12008KT 23/20 A3013 RMK A01 T02270195  RH  082%=      5-min Rain = 0
KSW1 110516Z 12008KT 23/20 A3013 RMK A01 T02270195  RH  082%=      5-min Rain = 0
KSW1 110517Z 12008KT 23/20 A3013 RMK A01 T02270195  RH  082%=      5-min Rain = 0
KSW1 110518Z 12008KT 23/20 A3013 RMK A01 T02270195  RH  082%=      5-min Rain = 0
KSW1 110519Z 12008KT 23/20 A3013 RMK A01 T02270195  RH  082%=      5-min Rain = 0
KSW1 110520Z 12008KT 23/20 A3013 RMK A01 T02270195  RH  082%=      5-min Rain = 0
KSW1 110521Z 12007KT 23/20 A3012 RMK A01 T02270195  RH  082%=      5-min Rain = 0
KSW1 110522Z 12007KT 23/19 A3012 RMK A01 T02260194  RH  082%=      5-min Rain = 0
KSW1 110523Z 12006KT 23/19 A3012 RMK A01 T02260194  RH  082%=      5-min Rain = 0
KSW1 110524Z 13006KT 23/20 A3012 RMK A01 T02260195  RH  082%=      5-min Rain = 0
KSW1 110525Z 14006KT 23/19 A3012 RMK A01 T02260194  RH  082%=      5-min Rain = 0
KSW1 110526Z 14006KT 23/19 A3012 RMK A01 T02260194  RH  082%=      5-min Rain = 0
KSW1 110527Z 14006KT 23/19 A3012 RMK A01 T02260194  RH  082%=      5-min Rain = 0
KSW1 110528Z 13007KT 23/19 A3012 RMK A01 T02250194  RH  082%=      5-min Rain = 0
KSW1 110529Z 13007KT 23/19 A3012 RMK A01 T02250194  RH  082%=      5-min Rain = 0
KSW1 110530Z 13007KT 23/19 A3012 RMK A01 T02260194  RH  082%=      5-min Rain = 0
KSW1 110531Z 13008KT 23/19 A3012 RMK A01 T02260194  RH  082%=      5-min Rain = 0
KSW1 110532Z 13008KT 23/19 A3012 RMK A01 T02260194  RH  082%=      5-min Rain = 0
KSW1 110533Z 13008KT 23/19 A3012 RMK A01 T02260194  RH  082%=      5-min Rain = 0
KSW1 110534Z 13007KT 23/19 A3012 RMK A01 T02260194  RH  082%=      5-min Rain = 0
KSW1 110535Z 13007KT 23/19 A3012 RMK A01 T02260194  RH  082%=      5-min Rain = 0
KSW1 110536Z 13008KT 23/19 A3012 RMK A01 T02260194  RH  082%=      5-min Rain = 0
KSW1 110537Z 14007KT 23/19 A3012 RMK A01 T02260194  RH  082%=      5-min Rain = 0
KSW1 110538Z 13008KT 23/19 A3012 RMK A01 T02260194  RH  082%=      5-min Rain = 0
KSW1 110539Z 14008KT 23/19 A3012 RMK A01 T02260194  RH  082%=      5-min Rain = 0
KSW1 110540Z 14008KT 23/19 A3012 RMK A01 T02260194  RH  082%=      5-min Rain = 0
KSW1 110541Z 14008KT 23/20 A3012 RMK A01 T02270195  RH  082%=      5-min Rain = 0
KSW1 110542Z 13008KT 23/20 A3012 RMK A01 T02270195  RH  082%=      5-min Rain = 0
KSW1 110543Z 13008KT 23/19 A3012 RMK A01 T02270194  RH  082%=      5-min Rain = 0
KSW1 110544Z 13008KT 23/20 A3012 RMK A01 T02280195  RH  082%=      5-min Rain = 0
KSW1 110545Z 13008KT 23/19 A3012 RMK A01 T02280194  RH  081%=      5-min Rain = 0
KSW1 110546Z 13008KT 23/19 A3012 RMK A01 T02280194  RH  081%=      5-min Rain = 0
KSW1 110547Z 13008KT 23/19 A3012 RMK A01 T02280194  RH  081%=      5-min Rain = 0
KSW1 110548Z 14008KT 23/20 A3012 RMK A01 T02280195  RH  081%=      5-min Rain = 0
KSW1 110549Z 13007KT 23/19 A3012 RMK A01 T02280194  RH  081%=      5-min Rain = 0
KSW1 110550Z 13008KT 23/19 A3012 RMK A01 T02270194  RH  082%=      5-min Rain = 0
KSW1 110551Z 14008KT 23/19 A3012 RMK A01 T02270194  RH  082%=      5-min Rain = 0
KSW1 110552Z 14007KT 23/19 A3012 RMK A01 T02270194  RH  082%=      5-min Rain = 0
KSW1 110553Z 14007KT 23/20 A3012 RMK A01 T02270195  RH  082%=      5-min Rain = 0
KSW1 110554Z 13007KT 23/19 A3012 RMK A01 T02260194  RH  082%=      5-min Rain = 0
KSW1 110555Z 13007KT 23/19 A3012 RMK A01 T02260194  RH  082%=      5-min Rain = 0
KSW1 110556Z 13007KT 23/19 A3012 RMK A01 T02260194  RH  083%=      5-min Rain = 0
KSW1 110557Z 13007KT 23/19 A3012 RMK A01 T02250194  RH  083%=      5-min Rain = 0
KSW1 110558Z 13007KT 23/19 A3012 RMK A01 T02250194  RH  082%=      5-min Rain = 0
KSW1 110559Z 13006KT 23/19 A3012 RMK A01 T02250194  RH  082%=      5-min Rain = 0
KSW1 110600Z 13007KT 23/19 A3012 RMK A01 T02250194  RH  083%=      5-min Rain = 0
KSW1 110601Z 13007KT 23/19 A3012 RMK A01 T02250194  RH  083%=      5-min Rain = 0
KSW1 110602Z 13007KT 23/19 A3012 RMK A01 T02250194  RH  083%=      5-min Rain = 0
KSW1 110603Z 13007KT 23/19 A3012 RMK A01 T02250194  RH  083%=      5-min Rain = 0
KSW1 110604Z 13009KT 23/19 A3012 RMK A01 T02250194  RH  083%=      5-min Rain = 0
KSW1 110605Z 13008KT 23/19 A3012 RMK A01 T02250194  RH  082%=      5-min Rain = 0
KSW1 110606Z 13009KT 23/19 A3012 RMK A01 T02250194  RH  082%=      5-min Rain = 0
KSW1 110607Z 13008KT 23/19 A3012 RMK A01 T02260193  RH  082%=      5-min Rain = 0
KSW1 110608Z 13006KT 23/19 A3012 RMK A01 T02260193  RH  082%=      5-min Rain = 0
KSW1 110609Z 13007KT 23/19 A3012 RMK A01 T02270194  RH  082%=      5-min Rain = 0
KSW1 110610Z 13008KT 23/19 A3012 RMK A01 T02260193  RH  082%=      5-min Rain = 0
KSW1 110611Z 13007KT 23/19 A3012 RMK A01 T02260193  RH  082%=      5-min Rain = 0
KSW1 110612Z 13007KT 23/19 A3012 RMK A01 T02270193  RH  081%=      5-min Rain = 0
KSW1 110613Z 13007KT 23/19 A3012 RMK A01 T02270193  RH  081%=      5-min Rain = 0
KSW1 110614Z 13007KT 23/19 A3012 RMK A01 T02270193  RH  081%=      5-min Rain = 0
KSW1 110615Z 14007KT 23/19 A3012 RMK A01 T02270193  RH  081%=      5-min Rain = 0
KSW1 110616Z 14005KT 23/19 A3012 RMK A01 T02260192  RH  081%=      5-min Rain = 0
KSW1 110617Z 14004KT 23/19 A3012 RMK A01 T02260193  RH  081%=      5-min Rain = 0
KSW1 110618Z 14005KT 23/19 A3012 RMK A01 T02260193  RH  081%=      5-min Rain = 0
KSW1 110619Z 14005KT 23/19 A3012 RMK A01 T02260193  RH  081%=      5-min Rain = 0
KSW1 110620Z 14006KT 23/19 A3012 RMK A01 T02260193  RH  082%=      5-min Rain = 0
KSW1 110621Z 14005KT 23/19 A3012 RMK A01 T02250192  RH  082%=      5-min Rain = 0
KSW1 110622Z 14005KT 23/19 A3012 RMK A01 T02250193  RH  082%=      5-min Rain = 0
KSW1 110623Z 14005KT 22/19 A3012 RMK A01 T02240192  RH  082%=      5-min Rain = 0
KSW1 110624Z 14005KT 23/19 A3012 RMK A01 T02250193  RH  082%=      5-min Rain = 0
KSW1 110625Z 14005KT 23/19 A3012 RMK A01 T02250193  RH  082%=      5-min Rain = 0
KSW1 110626Z 14005KT 22/19 A3012 RMK A01 T02240192  RH  082%=      5-min Rain = 0
KSW1 110627Z 14005KT 23/19 A3012 RMK A01 T02250192  RH  082%=      5-min Rain = 0
KSW1 110628Z 14005KT 22/19 A3012 RMK A01 T02240192  RH  082%=      5-min Rain = 0
KSW1 110629Z 14005KT 22/19 A3012 RMK A01 T02240192  RH  082%=      5-min Rain = 0
KSW1 110630Z 14005KT 22/19 A3012 RMK A01 T02240192  RH  082%=      5-min Rain = 0
KSW1 110631Z 14005KT 22/19 A3012 RMK A01 T02240192  RH  082%=      5-min Rain = 0
KSW1 110632Z 14005KT 22/19 A3012 RMK A01 T02240192  RH  082%=      5-min Rain = 0
KSW1 110633Z 14005KT 22/19 A3012 RMK A01 T02240192  RH  082%=      5-min Rain = 0
KSW1 110634Z 14005KT 22/19 A3012 RMK A01 T02240192  RH  082%=      5-min Rain = 0
KSW1 110635Z 14005KT 22/19 A3012 RMK A01 T02240192  RH  082%=      5-min Rain = 0
KSW1 110636Z 14006KT 22/19 A3012 RMK A01 T02230192  RH  083%=      5-min Rain = 0
KSW1 110637Z 14005KT 22/19 A3012 RMK A01 T02230192  RH  083%=      5-min Rain = 0
KSW1 110638Z 14006KT 22/19 A3012 RMK A01 T02230192  RH  083%=      5-min Rain = 0
KSW1 110639Z 14005KT 22/19 A3012 RMK A01 T02220192  RH  083%=      5-min Rain = 0
KSW1 110640Z 14005KT 22/19 A3012 RMK A01 T02220192  RH  083%=      5-min Rain = 0
KSW1 110641Z 14006KT 22/19 A3012 RMK A01 T02220192  RH  083%=      5-min Rain = 0
KSW1 110642Z 14006KT 22/19 A3012 RMK A01 T02220192  RH  083%=      5-min Rain = 0
KSW1 110643Z 14005KT 22/19 A3012 RMK A01 T02220192  RH  083%=      5-min Rain = 0
KSW1 110644Z 14006KT 22/19 A3012 RMK A01 T02220192  RH  083%=      5-min Rain = 0
KSW1 110645Z 15006KT 22/19 A3012 RMK A01 T02220192  RH  083%=      5-min Rain = 0
KSW1 110646Z 14006KT 22/19 A3012 RMK A01 T02220192  RH  083%=      5-min Rain = 0
KSW1 110647Z 14006KT 22/19 A3012 RMK A01 T02220192  RH  083%=      5-min Rain = 0
KSW1 110648Z 14006KT 22/19 A3012 RMK A01 T02220192  RH  083%=      5-min Rain = 0
KSW1 110649Z 14006KT 22/19 A3012 RMK A01 T02220193  RH  084%=      5-min Rain = 0
KSW1 110650Z 14006KT 22/19 A3012 RMK A01 T02210192  RH  084%=      5-min Rain = 0
KSW1 110651Z 14006KT 22/19 A3012 RMK A01 T02210193  RH  084%=      5-min Rain = 0
KSW1 110652Z 14006KT 22/19 A3012 RMK A01 T02210192  RH  084%=      5-min Rain = 0
KSW1 110653Z 14006KT 22/19 A3012 RMK A01 T02210192  RH  084%=      5-min Rain = 0
KSW1 110654Z 14006KT 22/19 A3012 RMK A01 T02210192  RH  084%=      5-min Rain = 0
KSW1 110655Z 14006KT 22/19 A3012 RMK A01 T02200192  RH  084%=      5-min Rain = 0
KSW1 110656Z 14006KT 22/19 A3012 RMK A01 T02200192  RH  084%=      5-min Rain = 0
KSW1 110657Z 14005KT 22/19 A3012 RMK A01 T02200192  RH  084%=      5-min Rain = 0
KSW1 110658Z 14005KT 22/19 A3012 RMK A01 T02200192  RH  084%=      5-min Rain = 0
KSW1 110659Z 15005KT 22/19 A3012 RMK A01 T02190192  RH  084%=      5-min Rain = 0
KSW1 110700Z 15005KT 22/19 A3012 RMK A01 T02190192  RH  084%=      5-min Rain = 0
KSW1 110701Z 15005KT 22/19 A3012 RMK A01 T02190192  RH  084%=      5-min Rain = 0
KSW1 110702Z 15005KT 22/19 A3012 RMK A01 T02190192  RH  085%=      5-min Rain = 0
KSW1 110703Z 15005KT 22/19 A3012 RMK A01 T02190192  RH  085%=      5-min Rain = 0
KSW1 110704Z 15006KT 22/19 A3012 RMK A01 T02190192  RH  085%=      5-min Rain = 0
KSW1 110705Z 15006KT 22/19 A3012 RMK A01 T02180192  RH  085%=      5-min Rain = 0
KSW1 110706Z 15006KT 22/19 A3012 RMK A01 T02180192  RH  085%=      5-min Rain = 0
KSW1 110707Z 15007KT 22/19 A3012 RMK A01 T02180192  RH  085%=      5-min Rain = 0
KSW1 110708Z 15007KT 22/19 A3012 RMK A01 T02180192  RH  085%=      5-min Rain = 0
KSW1 110709Z 15007KT 22/19 A3012 RMK A01 T02180192  RH  085%=      5-min Rain = 0
KSW1 110710Z 15007KT 22/19 A3012 RMK A01 T02180192  RH  085%=      5-min Rain = 0
KSW1 110711Z 15008KT 22/19 A3012 RMK A01 T02180192  RH  085%=      5-min Rain = 0
KSW1 110712Z 15007KT 22/19 A3012 RMK A01 T02180192  RH  085%=      5-min Rain = 0
KSW1 110713Z 15007KT 22/19 A3012 RMK A01 T02180192  RH  085%=      5-min Rain = 0
KSW1 110714Z 15007KT 22/19 A3012 RMK A01 T02190192  RH  085%=      5-min Rain = 0
KSW1 110715Z 15007KT 22/19 A3012 RMK A01 T02190192  RH  085%=      5-min Rain = 0
KSW1 110716Z 15007KT 22/19 A3012 RMK A01 T02190192  RH  085%=      5-min Rain = 0
KSW1 110717Z 16007KT 22/19 A3012 RMK A01 T02180192  RH  085%=      5-min Rain = 0
KSW1 110718Z 15006KT 22/19 A3012 RMK A01 T02190192  RH  085%=      5-min Rain = 0
KSW1 110719Z 16006KT 22/19 A3012 RMK A01 T02180192  RH  085%=      5-min Rain = 0
KSW1 110720Z 15006KT 22/19 A3012 RMK A01 T02180191  RH  085%=      5-min Rain = 0
KSW1 110721Z 15006KT 22/19 A3012 RMK A01 T02180191  RH  085%=      5-min Rain = 0
KSW1 110722Z 15006KT 22/19 A3012 RMK A01 T02180191  RH  085%=      5-min Rain = 0
KSW1 110723Z 15006KT 22/19 A3012 RMK A01 T02180191  RH  085%=      5-min Rain = 0
KSW1 110724Z 15006KT 22/19 A3012 RMK A01 T02170191  RH  085%=      5-min Rain = 0
KSW1 110725Z 15006KT 22/19 A3012 RMK A01 T02170191  RH  085%=      5-min Rain = 0
KSW1 110726Z 15006KT 22/19 A3012 RMK A01 T02170191  RH  085%=      5-min Rain = 0
KSW1 110727Z 15006KT 22/19 A3012 RMK A01 T02170191  RH  085%=      5-min Rain = 0
KSW1 110728Z 15006KT 22/19 A3012 RMK A01 T02170191  RH  085%=      5-min Rain = 0
KSW1 110729Z 15006KT 22/19 A3012 RMK A01 T02170191  RH  085%=      5-min Rain = 0
KSW1 110730Z 15006KT 22/19 A3012 RMK A01 T02170191  RH  085%=      5-min Rain = 0
KSW1 110731Z 15005KT 22/19 A3012 RMK A01 T02170191  RH  085%=      5-min Rain = 0
KSW1 110732Z 15006KT 22/19 A3012 RMK A01 T02170191  RH  085%=      5-min Rain = 0
KSW1 110733Z 16006KT 22/19 A3012 RMK A01 T02170191  RH  085%=      5-min Rain = 0
KSW1 110734Z 15005KT 22/19 A3012 RMK A01 T02170191  RH  085%=      5-min Rain = 0
KSW1 110735Z 16006KT 22/19 A3012 RMK A01 T02170190  RH  085%=      5-min Rain = 0
KSW1 110736Z 16005KT 22/19 A3012 RMK A01 T02170191  RH  085%=      5-min Rain = 0
KSW1 110737Z 16005KT 22/19 A3012 RMK A01 T02170190  RH  085%=      5-min Rain = 0
KSW1 110738Z 16005KT 22/19 A3012 RMK A01 T02170190  RH  084%=      5-min Rain = 0
KSW1 110739Z 16006KT 22/19 A3012 RMK A01 T02170189  RH  084%=      5-min Rain = 0
KSW1 110740Z 17006KT 22/19 A3012 RMK A01 T02180189  RH  084%=      5-min Rain = 0
KSW1 110741Z 16005KT 22/19 A3012 RMK A01 T02180189  RH  084%=      5-min Rain = 0
KSW1 110742Z 17006KT 22/19 A3012 RMK A01 T02180189  RH  083%=      5-min Rain = 0
KSW1 110743Z 17006KT 22/19 A3012 RMK A01 T02180188  RH  083%=      5-min Rain = 0
KSW1 110744Z 17005KT 22/19 A3012 RMK A01 T02180188  RH  083%=      5-min Rain = 0
KSW1 110745Z 17006KT 22/19 A3012 RMK A01 T02180187  RH  083%=      5-min Rain = 0
KSW1 110746Z 17006KT 22/19 A3012 RMK A01 T02190187  RH  082%=      5-min Rain = 0
KSW1 110747Z 17006KT 22/19 A3012 RMK A01 T02190186  RH  082%=      5-min Rain = 0
KSW1 110748Z 17006KT 22/19 A3012 RMK A01 T02190186  RH  081%=      5-min Rain = 0
KSW1 110749Z 17006KT 22/19 A3012 RMK A01 T02190185  RH  081%=      5-min Rain = 0
KSW1 110750Z 17006KT 22/19 A3012 RMK A01 T02190185  RH  081%=      5-min Rain = 0
KSW1 110751Z 17006KT 22/18 A3012 RMK A01 T02190184  RH  081%=      5-min Rain = 0
KSW1 110752Z 17006KT 22/18 A3012 RMK A01 T02190184  RH  080%=      5-min Rain = 0
KSW1 110753Z 17006KT 22/18 A3012 RMK A01 T02190183  RH  080%=      5-min Rain = 0
KSW1 110754Z 17006KT 22/18 A3012 RMK A01 T02200182  RH  079%=      5-min Rain = 0
KSW1 110755Z 17006KT 22/18 A3012 RMK A01 T02200183  RH  079%=      5-min Rain = 0
KSW1 110756Z 17006KT 22/18 A3012 RMK A01 T02200183  RH  079%=      5-min Rain = 0
KSW1 110757Z 18006KT 22/18 A3012 RMK A01 T02200182  RH  079%=      5-min Rain = 0
KSW1 110758Z 17006KT 22/18 A3012 RMK A01 T02200181  RH  078%=      5-min Rain = 0
KSW1 110759Z 17006KT 22/18 A3012 RMK A01 T02210181  RH  078%=      5-min Rain = 0
KSW1 110800Z 17006KT 22/18 A3012 RMK A01 T02210180  RH  078%=      5-min Rain = 0
KSW1 110801Z 17006KT 22/18 A3012 RMK A01 T02210181  RH  078%=      5-min Rain = 0
KSW1 110802Z 17006KT 22/18 A3012 RMK A01 T02200181  RH  078%=      5-min Rain = 0
KSW1 110803Z 17006KT 22/18 A3012 RMK A01 T02200181  RH  078%=      5-min Rain = 0
KSW1 110804Z 17006KT 22/18 A3012 RMK A01 T02200180  RH  078%=      5-min Rain = 0
KSW1 110805Z 17006KT 22/18 A3012 RMK A01 T02190180  RH  078%=      5-min Rain = 0
KSW1 110806Z 17006KT 22/18 A3013 RMK A01 T02190180  RH  078%=      5-min Rain = 0
KSW1 110807Z 17006KT 22/18 A3013 RMK A01 T02190180  RH  078%=      5-min Rain = 0
KSW1 110808Z 17006KT 22/18 A3013 RMK A01 T02190180  RH  078%=      5-min Rain = 0
KSW1 110809Z 17006KT 22/18 A3013 RMK A01 T02180179  RH  078%=      5-min Rain = 0
KSW1 110810Z 17006KT 22/18 A3013 RMK A01 T02190179  RH  078%=      5-min Rain = 0
KSW1 110811Z 17006KT 22/18 A3013 RMK A01 T02190179  RH  078%=      5-min Rain = 0
KSW1 110812Z 17005KT 22/18 A3013 RMK A01 T02190179  RH  078%=      5-min Rain = 0
KSW1 110813Z 17005KT 22/18 A3013 RMK A01 T02180178  RH  078%=      5-min Rain = 0
KSW1 110814Z 17005KT 22/18 A3013 RMK A01 T02190178  RH  078%=      5-min Rain = 0
KSW1 110815Z 17005KT 22/18 A3013 RMK A01 T02190178  RH  078%=      5-min Rain = 0
KSW1 110816Z 17006KT 22/18 A3013 RMK A01 T02180178  RH  078%=      5-min Rain = 0
KSW1 110817Z 16005KT 22/18 A3013 RMK A01 T02180178  RH  078%=      5-min Rain = 0
KSW1 110818Z 16005KT 22/18 A3013 RMK A01 T02180178  RH  078%=      5-min Rain = 0
KSW1 110819Z 16006KT 22/18 A3013 RMK A01 T02170178  RH  078%=      5-min Rain = 0
KSW1 110820Z 17006KT 22/18 A3013 RMK A01 T02170178  RH  078%=      5-min Rain = 0
KSW1 110821Z 17006KT 22/18 A3013 RMK A01 T02170178  RH  078%=      5-min Rain = 0
KSW1 110822Z 16006KT 22/18 A3013 RMK A01 T02170178  RH  078%=      5-min Rain = 0
KSW1 110823Z 17006KT 22/18 A3013 RMK A01 T02170177  RH  078%=      5-min Rain = 0
KSW1 110824Z 16006KT 22/18 A3013 RMK A01 T02170178  RH  078%=      5-min Rain = 0
KSW1 110825Z 16006KT 22/18 A3013 RMK A01 T02170177  RH  078%=      5-min Rain = 0
KSW1 110826Z 16006KT 22/18 A3013 RMK A01 T02170177  RH  078%=      5-min Rain = 0
KSW1 110827Z 16006KT 22/18 A3013 RMK A01 T02170176  RH  077%=      5-min Rain = 0
KSW1 110828Z 16007KT 22/18 A3013 RMK A01 T02170176  RH  077%=      5-min Rain = 0
KSW1 110829Z 17007KT 22/18 A3013 RMK A01 T02170176  RH  077%=      5-min Rain = 0
KSW1 110830Z 17007KT 22/18 A3013 RMK A01 T02170175  RH  077%=      5-min Rain = 0
KSW1 110831Z 16006KT 22/17 A3013 RMK A01 T02180174  RH  076%=      5-min Rain = 0
KSW1 110832Z 17007KT 22/18 A3013 RMK A01 T02190175  RH  076%=      5-min Rain = 0
KSW1 110833Z 17006KT 22/17 A3013 RMK A01 T02190174  RH  076%=      5-min Rain = 0
KSW1 110834Z 17006KT 22/18 A3013 RMK A01 T02200175  RH  076%=      5-min Rain = 0
KSW1 110835Z 17006KT 22/18 A3013 RMK A01 T02200175  RH  076%=      5-min Rain = 0
KSW1 110836Z 16005KT 22/18 A3013 RMK A01 T02200175  RH  076%=      5-min Rain = 0
KSW1 110837Z 17005KT 22/18 A3013 RMK A01 T02200175  RH  076%=      5-min Rain = 0
KSW1 110838Z 17005KT 22/17 A3013 RMK A01 T02190174  RH  076%=      5-min Rain = 0
KSW1 110839Z 17005KT 22/17 A3013 RMK A01 T02180174  RH  076%=      5-min Rain = 0
KSW1 110840Z 17005KT 22/17 A3013 RMK A01 T02180174  RH  076%=      5-min Rain = 0
KSW1 110841Z 17006KT 22/17 A3013 RMK A01 T02170174  RH  076%=      5-min Rain = 0
KSW1 110842Z 16006KT 22/17 A3013 RMK A01 T02170174  RH  076%=      5-min Rain = 0
KSW1 110843Z 16006KT 22/17 A3013 RMK A01 T02170174  RH  076%=      5-min Rain = 0
KSW1 110844Z 16006KT 22/17 A3013 RMK A01 T02160173  RH  077%=      5-min Rain = 0
KSW1 110845Z 16006KT 22/17 A3013 RMK A01 T02160173  RH  077%=      5-min Rain = 0
KSW1 110846Z 16006KT 22/17 A3013 RMK A01 T02160173  RH  077%=      5-min Rain = 0
KSW1 110847Z 16006KT 22/17 A3013 RMK A01 T02150173  RH  077%=      5-min Rain = 0
KSW1 110848Z 16006KT 22/17 A3013 RMK A01 T02150173  RH  077%=      5-min Rain = 0
KSW1 110849Z 17007KT 21/17 A3013 RMK A01 T02140172  RH  077%=      5-min Rain = 0
KSW1 110850Z 17006KT 21/17 A3013 RMK A01 T02140172  RH  077%=      5-min Rain = 0
KSW1 110851Z 17006KT 22/17 A3013 RMK A01 T02150172  RH  076%=      5-min Rain = 0
KSW1 110852Z 16006KT 22/17 A3013 RMK A01 T02150172  RH  076%=      5-min Rain = 0
KSW1 110853Z 16007KT 22/17 A3013 RMK A01 T02150172  RH  076%=      5-min Rain = 0
KSW1 110854Z 16006KT 22/17 A3013 RMK A01 T02150172  RH  076%=      5-min Rain = 0
KSW1 110855Z 16006KT 22/17 A3013 RMK A01 T02150172  RH  076%=      5-min Rain = 0
KSW1 110856Z 16006KT 22/17 A3013 RMK A01 T02150172  RH  077%=      5-min Rain = 0
KSW1 110857Z 16006KT 21/17 A3013 RMK A01 T02140172  RH  077%=      5-min Rain = 0
KSW1 110858Z 16006KT 21/17 A3013 RMK A01 T02130172  RH  077%=      5-min Rain = 0
KSW1 110859Z 16006KT 21/17 A3013 RMK A01 T02130172  RH  077%=      5-min Rain = 0
KSW1 110900Z 16006KT 21/17 A3013 RMK A01 T02120172  RH  078%=      5-min Rain = 0
KSW1 110901Z 16006KT 21/17 A3013 RMK A01 T02120172  RH  078%=      5-min Rain = 0
KSW1 110902Z 16007KT 21/17 A3013 RMK A01 T02120172  RH  078%=      5-min Rain = 0
KSW1 110903Z 17006KT 21/17 A3013 RMK A01 T02120172  RH  078%=      5-min Rain = 0
KSW1 110904Z 16006KT 21/17 A3013 RMK A01 T02120172  RH  078%=      5-min Rain = 0
KSW1 110905Z 16006KT 21/17 A3013 RMK A01 T02120172  RH  078%=      5-min Rain = 0
KSW1 110906Z 17006KT 21/17 A3013 RMK A01 T02120172  RH  078%=      5-min Rain = 0
KSW1 110907Z 17006KT 21/17 A3013 RMK A01 T02120172  RH  078%=      5-min Rain = 0
KSW1 110908Z 16006KT 21/17 A3013 RMK A01 T02110172  RH  078%=      5-min Rain = 0
KSW1 110909Z 17006KT 21/17 A3013 RMK A01 T02110172  RH  078%=      5-min Rain = 0
KSW1 110910Z 17007KT 21/17 A3013 RMK A01 T02110172  RH  078%=      5-min Rain = 0
KSW1 110911Z 16006KT 21/17 A3013 RMK A01 T02110172  RH  078%=      5-min Rain = 0
KSW1 110912Z 17007KT 21/17 A3013 RMK A01 T02110172  RH  079%=      5-min Rain = 0
KSW1 110913Z 16007KT 21/17 A3013 RMK A01 T02100172  RH  079%=      5-min Rain = 0
KSW1 110914Z 16007KT 21/17 A3013 RMK A01 T02100172  RH  079%=      5-min Rain = 0
KSW1 110915Z 16007KT 21/17 A3013 RMK A01 T02100172  RH  079%=      5-min Rain = 0
KSW1 110916Z 16007KT 21/17 A3012 RMK A01 T02100171  RH  078%=      5-min Rain = 0
KSW1 110917Z 16007KT 21/17 A3012 RMK A01 T02110172  RH  078%=      5-min Rain = 0
KSW1 110918Z 16007KT 21/17 A3012 RMK A01 T02110171  RH  078%=      5-min Rain = 0
KSW1 110919Z 16007KT 21/17 A3012 RMK A01 T02110171  RH  078%=      5-min Rain = 0
KSW1 110920Z 16007KT 21/17 A3012 RMK A01 T02110171  RH  078%=      5-min Rain = 0
KSW1 110921Z 16007KT 21/17 A3012 RMK A01 T02110171  RH  078%=      5-min Rain = 0
KSW1 110922Z 16007KT 21/17 A3012 RMK A01 T02110171  RH  078%=      5-min Rain = 0
KSW1 110923Z 16007KT 21/17 A3012 RMK A01 T02120172  RH  078%=      5-min Rain = 0
KSW1 110924Z 16007KT 21/17 A3012 RMK A01 T02120172  RH  078%=      5-min Rain = 0
KSW1 110925Z 16007KT 21/17 A3012 RMK A01 T02120172  RH  078%=      5-min Rain = 0
KSW1 110926Z 16008KT 21/17 A3012 RMK A01 T02120171  RH  078%=      5-min Rain = 0
KSW1 110927Z 16007KT 21/17 A3012 RMK A01 T02120171  RH  077%=      5-min Rain = 0
KSW1 110928Z 16006KT 21/17 A3012 RMK A01 T02120171  RH  077%=      5-min Rain = 0
KSW1 110929Z 16006KT 21/17 A3012 RMK A01 T02130171  RH  077%=      5-min Rain = 0
KSW1 110930Z 16006KT 21/17 A3012 RMK A01 T02130171  RH  077%=      5-min Rain = 0
KSW1 110931Z 16007KT 21/17 A3012 RMK A01 T02130171  RH  077%=      5-min Rain = 0
KSW1 110932Z 17007KT 21/17 A3012 RMK A01 T02140172  RH  077%=      5-min Rain = 0
KSW1 110933Z 17007KT 22/17 A3012 RMK A01 T02150172  RH  076%=      5-min Rain = 0
KSW1 110934Z 17006KT 22/17 A3012 RMK A01 T02150172  RH  076%=      5-min Rain = 0
KSW1 110935Z 16007KT 22/17 A3013 RMK A01 T02150172  RH  076%=      5-min Rain = 0
KSW1 110936Z 16007KT 22/17 A3013 RMK A01 T02150172  RH  076%=      5-min Rain = 0
KSW1 110937Z 16007KT 22/17 A3013 RMK A01 T02150172  RH  076%=      5-min Rain = 0
KSW1 110938Z 16007KT 22/17 A3013 RMK A01 T02150172  RH  076%=      5-min Rain = 0
KSW1 110939Z 16008KT 22/17 A3013 RMK A01 T02150172  RH  076%=      5-min Rain = 0
KSW1 110940Z 16008KT 22/17 A3013 RMK A01 T02150172  RH  076%=      5-min Rain = 0
KSW1 110941Z 16008KT 22/17 A3013 RMK A01 T02150172  RH  076%=      5-min Rain = 0
KSW1 110942Z 16007KT 22/17 A3013 RMK A01 T02150172  RH  076%=      5-min Rain = 0
KSW1 110943Z 16007KT 22/17 A3013 RMK A01 T02150172  RH  076%=      5-min Rain = 0
KSW1 110944Z 16007KT 22/17 A3013 RMK A01 T02150172  RH  077%=      5-min Rain = 0
KSW1 110945Z 16007KT 22/17 A3013 RMK A01 T02150172  RH  077%=      5-min Rain = 0
KSW1 110946Z 16007KT 21/17 A3013 RMK A01 T02140172  RH  077%=      5-min Rain = 0
KSW1 110947Z 16007KT 21/17 A3013 RMK A01 T02140172  RH  077%=      5-min Rain = 0
KSW1 110948Z 16007KT 21/17 A3013 RMK A01 T02140172  RH  077%=      5-min Rain = 0
KSW1 110949Z 16007KT 21/17 A3013 RMK A01 T02140172  RH  077%=      5-min Rain = 0
KSW1 110950Z 16007KT 22/17 A3013 RMK A01 T02150172  RH  077%=      5-min Rain = 0
KSW1 110951Z 16007KT 22/17 A3013 RMK A01 T02150172  RH  077%=      5-min Rain = 0
KSW1 110952Z 16007KT 22/17 A3012 RMK A01 T02150172  RH  077%=      5-min Rain = 0
KSW1 110953Z 16007KT 22/17 A3012 RMK A01 T02150172  RH  077%=      5-min Rain = 0
KSW1 110954Z 16007KT 22/17 A3012 RMK A01 T02150172  RH  076%=      5-min Rain = 0
KSW1 110955Z 16008KT 22/17 A3012 RMK A01 T02160172  RH  076%=      5-min Rain = 0
KSW1 110956Z 16008KT 22/17 A3012 RMK A01 T02160172  RH  076%=      5-min Rain = 0
KSW1 110957Z 16008KT 22/17 A3012 RMK A01 T02170172  RH  075%=      5-min Rain = 0
KSW1 110958Z 16007KT 22/17 A3012 RMK A01 T02170172  RH  076%=      5-min Rain = 0
KSW1 110959Z 16007KT 22/17 A3012 RMK A01 T02170172  RH  076%=      5-min Rain = 0
KSW1 111000Z 16007KT 22/17 A3012 RMK A01 T02160172  RH  076%=      5-min Rain = 0
KSW1 111001Z 16007KT 22/17 A3012 RMK A01 T02160172  RH  076%=      5-min Rain = 0
KSW1 111002Z 16007KT 22/17 A3012 RMK A01 T02160172  RH  076%=      5-min Rain = 0
KSW1 111003Z 16007KT 22/17 A3012 RMK A01 T02150172  RH  076%=      5-min Rain = 0
KSW1 111004Z 16006KT 22/17 A3012 RMK A01 T02150172  RH  076%=      5-min Rain = 0
KSW1 111005Z 16006KT 21/17 A3012 RMK A01 T02140172  RH  077%=      5-min Rain = 0
KSW1 111006Z 16007KT 21/17 A3012 RMK A01 T02140171  RH  077%=      5-min Rain = 0
KSW1 111007Z 16007KT 21/17 A3012 RMK A01 T02130172  RH  077%=      5-min Rain = 0
KSW1 111008Z 16006KT 21/17 A3012 RMK A01 T02130172  RH  077%=      5-min Rain = 0
KSW1 111009Z 16006KT 21/17 A3012 RMK A01 T02130171  RH  077%=      5-min Rain = 0
KSW1 111010Z 17007KT 21/17 A3012 RMK A01 T02130172  RH  077%=      5-min Rain = 0
KSW1 111011Z 16006KT 21/17 A3012 RMK A01 T02130172  RH  077%=      5-min Rain = 0
KSW1 111012Z 16006KT 21/17 A3012 RMK A01 T02130172  RH  078%=      5-min Rain = 0
KSW1 111013Z 16006KT 21/17 A3012 RMK A01 T02120172  RH  078%=      5-min Rain = 0
KSW1 111014Z 16006KT 21/17 A3012 RMK A01 T02110173  RH  078%=      5-min Rain = 0
KSW1 111015Z 16006KT 21/17 A3012 RMK A01 T02100172  RH  079%=      5-min Rain = 0
KSW1 111016Z 15006KT 21/17 A3012 RMK A01 T02100172  RH  079%=      5-min Rain = 0
KSW1 111017Z 15006KT 21/17 A3012 RMK A01 T02090172  RH  079%=      5-min Rain = 0
KSW1 111018Z 15006KT 21/17 A3012 RMK A01 T02080172  RH  080%=      5-min Rain = 0
KSW1 111019Z 15006KT 21/17 A3012 RMK A01 T02080172  RH  080%=      5-min Rain = 0
KSW1 111020Z 15006KT 21/17 A3012 RMK A01 T02070172  RH  080%=      5-min Rain = 0
KSW1 111021Z 14006KT 21/17 A3012 RMK A01 T02070172  RH  081%=      5-min Rain = 0
KSW1 111022Z 14006KT 21/17 A3012 RMK A01 T02070173  RH  081%=      5-min Rain = 0
KSW1 111023Z 14006KT 21/17 A3012 RMK A01 T02070173  RH  081%=      5-min Rain = 0
KSW1 111024Z 15006KT 21/17 A3012 RMK A01 T02060172  RH  081%=      5-min Rain = 0
KSW1 111025Z 15006KT 21/17 A3012 RMK A01 T02060173  RH  081%=      5-min Rain = 0
KSW1 111026Z 15005KT 21/17 A3012 RMK A01 T02060173  RH  081%=      5-min Rain = 0
KSW1 111027Z 15005KT 21/17 A3012 RMK A01 T02060173  RH  081%=      5-min Rain = 0
KSW1 111028Z 15005KT 21/17 A3012 RMK A01 T02050172  RH  081%=      5-min Rain = 0
KSW1 111029Z 15005KT 21/17 A3012 RMK A01 T02050173  RH  082%=      5-min Rain = 0
KSW1 111030Z 14005KT 21/17 A3012 RMK A01 T02050172  RH  082%=      5-min Rain = 0
KSW1 111031Z 14004KT 20/17 A3012 RMK A01 T02040171  RH  081%=      5-min Rain = 0
KSW1 111032Z 14005KT 20/17 A3012 RMK A01 T02040171  RH  082%=      5-min Rain = 0
KSW1 111033Z 14005KT 20/17 A3012 RMK A01 T02040172  RH  082%=      5-min Rain = 0
KSW1 111034Z 14005KT 20/17 A3012 RMK A01 T02030172  RH  082%=      5-min Rain = 0
KSW1 111035Z 15005KT 20/17 A3012 RMK A01 T02030172  RH  082%=      5-min Rain = 0
KSW1 111036Z 15004KT 20/17 A3012 RMK A01 T02030172  RH  082%=      5-min Rain = 0
KSW1 111037Z 14004KT 20/17 A3012 RMK A01 T02030172  RH  083%=      5-min Rain = 0
KSW1 111038Z 15005KT 20/17 A3012 RMK A01 T02020172  RH  083%=      5-min Rain = 0
KSW1 111039Z 15005KT 20/17 A3012 RMK A01 T02020172  RH  083%=      5-min Rain = 0
KSW1 111040Z 15005KT 20/17 A3012 RMK A01 T02030172  RH  083%=      5-min Rain = 0
KSW1 111041Z 15005KT 20/17 A3012 RMK A01 T02020172  RH  083%=      5-min Rain = 0
KSW1 111042Z 15005KT 20/17 A3012 RMK A01 T02020172  RH  083%=      5-min Rain = 0
KSW1 111043Z 15005KT 20/17 A3012 RMK A01 T02020172  RH  083%=      5-min Rain = 0
KSW1 111044Z 15005KT 20/17 A3012 RMK A01 T02020172  RH  083%=      5-min Rain = 0
KSW1 111045Z 15005KT 20/17 A3012 RMK A01 T02010172  RH  083%=      5-min Rain = 0
KSW1 111046Z 15005KT 20/17 A3012 RMK A01 T02010172  RH  083%=      5-min Rain = 0
KSW1 111047Z 15005KT 20/17 A3012 RMK A01 T02010172  RH  083%=      5-min Rain = 0
KSW1 111048Z 15005KT 20/17 A3012 RMK A01 T02010173  RH  084%=      5-min Rain = 0
KSW1 111049Z 15005KT 20/17 A3012 RMK A01 T02010172  RH  083%=      5-min Rain = 0
KSW1 111050Z 15005KT 20/17 A3012 RMK A01 T02010172  RH  083%=      5-min Rain = 0
KSW1 111051Z 15006KT 20/17 A3012 RMK A01 T02010172  RH  083%=      5-min Rain = 0
KSW1 111052Z 15006KT 20/17 A3012 RMK A01 T02010172  RH  083%=      5-min Rain = 0
KSW1 111053Z 15005KT 20/17 A3012 RMK A01 T02010172  RH  083%=      5-min Rain = 0
KSW1 111054Z 15005KT 20/17 A3012 RMK A01 T02020172  RH  083%=      5-min Rain = 0
KSW1 111055Z 15005KT 20/17 A3012 RMK A01 T02020172  RH  083%=      5-min Rain = 0
KSW1 111056Z 15005KT 20/17 A3012 RMK A01 T02020172  RH  083%=      5-min Rain = 0
KSW1 111057Z 15006KT 20/17 A3012 RMK A01 T02020172  RH  083%=      5-min Rain = 0
KSW1 111058Z 15004KT 20/17 A3012 RMK A01 T02020172  RH  083%=      5-min Rain = 0
KSW1 111059Z 15004KT 20/17 A3012 RMK A01 T02020172  RH  083%=      5-min Rain = 0
KSW1 111100Z 15004KT 20/17 A3013 RMK A01 T02020172  RH  083%=      5-min Rain = 0
KSW1 111101Z 15005KT 20/17 A3013 RMK A01 T02020172  RH  083%=      5-min Rain = 0
KSW1 111102Z 15004KT 20/17 A3013 RMK A01 T02020172  RH  083%=      5-min Rain = 0
KSW1 111103Z 15005KT 20/17 A3013 RMK A01 T02020172  RH  083%=      5-min Rain = 0
KSW1 111104Z 14005KT 20/17 A3013 RMK A01 T02020172  RH  083%=      5-min Rain = 0
KSW1 111105Z 15005KT 20/17 A3013 RMK A01 T02020172  RH  083%=      5-min Rain = 0
KSW1 111106Z 15005KT 20/17 A3013 RMK A01 T02020172  RH  083%=      5-min Rain = 0
KSW1 111107Z 15005KT 20/17 A3013 RMK A01 T02030172  RH  083%=      5-min Rain = 0
KSW1 111108Z 15005KT 20/17 A3013 RMK A01 T02020172  RH  083%=      5-min Rain = 0
KSW1 111109Z 15005KT 20/17 A3013 RMK A01 T02020172  RH  083%=      5-min Rain = 0
KSW1 111110Z 16005KT 20/17 A3013 RMK A01 T02020172  RH  083%=      5-min Rain = 0
KSW1 111111Z 15004KT 20/17 A3013 RMK A01 T02030172  RH  082%=      5-min Rain = 0
KSW1 111112Z 15004KT 20/17 A3013 RMK A01 T02030172  RH  082%=      5-min Rain = 0
KSW1 111113Z 16004KT 20/17 A3013 RMK A01 T02030172  RH  082%=      5-min Rain = 0
KSW1 111114Z 15004KT 20/17 A3013 RMK A01 T02030172  RH  083%=      5-min Rain = 0
KSW1 111115Z 15005KT 20/17 A3013 RMK A01 T02030172  RH  082%=      5-min Rain = 0
KSW1 111116Z 14004KT 20/17 A3013 RMK A01 T02030172  RH  083%=      5-min Rain = 0
KSW1 111117Z 15005KT 20/17 A3013 RMK A01 T02020172  RH  083%=      5-min Rain = 0
KSW1 111118Z 15005KT 20/17 A3013 RMK A01 T02020172  RH  083%=      5-min Rain = 0
KSW1 111119Z 14005KT 20/17 A3013 RMK A01 T02020172  RH  083%=      5-min Rain = 0
KSW1 111120Z 15005KT 20/17 A3013 RMK A01 T02020172  RH  083%=      5-min Rain = 0
KSW1 111121Z 14005KT 20/17 A3013 RMK A01 T02020172  RH  083%=      5-min Rain = 0
KSW1 111122Z 15006KT 20/17 A3013 RMK A01 T02020172  RH  083%=      5-min Rain = 0
KSW1 111123Z 14006KT 20/17 A3013 RMK A01 T02020172  RH  083%=      5-min Rain = 0
KSW1 111124Z 15006KT 20/17 A3013 RMK A01 T02020172  RH  083%=      5-min Rain = 0
KSW1 111125Z 15006KT 20/17 A3013 RMK A01 T02020172  RH  083%=      5-min Rain = 0
KSW1 111126Z 15006KT 20/17 A3013 RMK A01 T02020172  RH  083%=      5-min Rain = 0
KSW1 111127Z 15006KT 20/17 A3013 RMK A01 T02020172  RH  083%=      5-min Rain = 0
KSW1 111128Z 15006KT 20/17 A3013 RMK A01 T02030172  RH  083%=      5-min Rain = 0
KSW1 111129Z 15006KT 20/17 A3013 RMK A01 T02030172  RH  083%=      5-min Rain = 0
KSW1 111130Z 15007KT 20/17 A3013 RMK A01 T02030172  RH  083%=      5-min Rain = 0
KSW1 111131Z 15006KT 20/17 A3013 RMK A01 T02030172  RH  083%=      5-min Rain = 0
KSW1 111132Z 15006KT 20/17 A3013 RMK A01 T02030172  RH  083%=      5-min Rain = 0
KSW1 111133Z 15006KT 20/17 A3013 RMK A01 T02030173  RH  083%=      5-min Rain = 0
KSW1 111134Z 15006KT 20/17 A3013 RMK A01 T02030173  RH  083%=      5-min Rain = 0
KSW1 111135Z 15007KT 20/17 A3013 RMK A01 T02030173  RH  083%=      5-min Rain = 0
KSW1 111136Z 15007KT 20/17 A3013 RMK A01 T02030173  RH  083%=      5-min Rain = 0
KSW1 111137Z 15007KT 20/17 A3013 RMK A01 T02030173  RH  083%=      5-min Rain = 0
KSW1 111138Z 15006KT 20/17 A3013 RMK A01 T02030173  RH  083%=      5-min Rain = 0
KSW1 111139Z 15007KT 20/17 A3013 RMK A01 T02030172  RH  083%=      5-min Rain = 0
KSW1 111140Z 16007KT 20/17 A3013 RMK A01 T02030172  RH  083%=      5-min Rain = 0
KSW1 111141Z 15007KT 20/17 A3013 RMK A01 T02030172  RH  082%=      5-min Rain = 0
KSW1 111142Z 15007KT 20/17 A3013 RMK A01 T02030173  RH  082%=      5-min Rain = 0
KSW1 111143Z 16006KT 20/17 A3013 RMK A01 T02030173  RH  082%=      5-min Rain = 0
KSW1 111144Z 16007KT 20/17 A3013 RMK A01 T02030173  RH  082%=      5-min Rain = 0
KSW1 111145Z 15006KT 20/17 A3013 RMK A01 T02030173  RH  083%=      5-min Rain = 0
KSW1 111146Z 16006KT 20/17 A3013 RMK A01 T02030173  RH  083%=      5-min Rain = 0
KSW1 111147Z 16006KT 20/17 A3013 RMK A01 T02030173  RH  083%=      5-min Rain = 0
KSW1 111148Z 16005KT 20/17 A3013 RMK A01 T02030173  RH  083%=      5-min Rain = 0
KSW1 111149Z 16005KT 20/17 A3013 RMK A01 T02030173  RH  083%=      5-min Rain = 0
KSW1 111150Z 16005KT 20/17 A3013 RMK A01 T02030173  RH  083%=      5-min Rain = 0
KSW1 111151Z 16005KT 20/17 A3013 RMK A01 T02030173  RH  083%=      5-min Rain = 0
KSW1 111152Z 16005KT 20/17 A3014 RMK A01 T02020172  RH  083%=      5-min Rain = 0
KSW1 111153Z 16005KT 20/17 A3014 RMK A01 T02020173  RH  083%=      5-min Rain = 0
KSW1 111154Z 16005KT 20/17 A3014 RMK A01 T02030173  RH  083%=      5-min Rain = 0
KSW1 111155Z 16005KT 20/17 A3014 RMK A01 T02030173  RH  083%=      5-min Rain = 0
KSW1 111156Z 16004KT 20/17 A3014 RMK A01 T02030173  RH  083%=      5-min Rain = 0
KSW1 111157Z 16005KT 20/17 A3014 RMK A01 T02020173  RH  083%=      5-min Rain = 0
KSW1 111158Z 16005KT 20/17 A3014 RMK A01 T02020173  RH  083%=      5-min Rain = 0
KSW1 111159Z 16005KT 20/17 A3014 RMK A01 T02020173  RH  083%=      5-min Rain = 0
KSW1 111200Z 15005KT 20/17 A3014 RMK A01 T02020173  RH  083%=      5-min Rain = 0
KSW1 111201Z 15004KT 20/17 A3014 RMK A01 T02020173  RH  083%=      5-min Rain = 0
KSW1 111202Z 15004KT 20/17 A3014 RMK A01 T02020173  RH  083%=      5-min Rain = 0
KSW1 111203Z 16005KT 20/17 A3014 RMK A01 T02020173  RH  084%=      5-min Rain = 0
KSW1 111204Z 15005KT 20/17 A3014 RMK A01 T02020173  RH  084%=      5-min Rain = 0
KSW1 111205Z 15005KT 20/17 A3014 RMK A01 T02020173  RH  084%=      5-min Rain = 0
KSW1 111206Z 15005KT 20/17 A3014 RMK A01 T02010173  RH  084%=      5-min Rain = 0
KSW1 111207Z 15005KT 20/17 A3014 RMK A01 T02020173  RH  084%=      5-min Rain = 0
KSW1 111208Z 15005KT 20/17 A3014 RMK A01 T02020173  RH  084%=      5-min Rain = 0
KSW1 111209Z 15005KT 20/17 A3014 RMK A01 T02010173  RH  084%=      5-min Rain = 0
KSW1 111210Z 15005KT 20/17 A3014 RMK A01 T02020173  RH  084%=      5-min Rain = 0
KSW1 111211Z 15006KT 20/17 A3014 RMK A01 T02020173  RH  084%=      5-min Rain = 0
KSW1 111212Z 15005KT 20/17 A3014 RMK A01 T02020174  RH  083%=      5-min Rain = 0
KSW1 111213Z 15005KT 20/17 A3014 RMK A01 T02030174  RH  083%=      5-min Rain = 0
KSW1 111214Z 16006KT 20/17 A3014 RMK A01 T02030174  RH  083%=      5-min Rain = 0
KSW1 111215Z 16006KT 20/17 A3014 RMK A01 T02040174  RH  083%=      5-min Rain = 0
KSW1 111216Z 16005KT 20/17 A3014 RMK A01 T02040174  RH  083%=      5-min Rain = 0
KSW1 111217Z 15006KT 21/17 A3014 RMK A01 T02050174  RH  082%=      5-min Rain = 0
KSW1 111218Z 15007KT 21/17 A3014 RMK A01 T02060173  RH  082%=      5-min Rain = 0
KSW1 111219Z 15006KT 21/17 A3014 RMK A01 T02060173  RH  081%=      5-min Rain = 0
KSW1 111220Z 15007KT 21/17 A3014 RMK A01 T02070174  RH  081%=      5-min Rain = 0
KSW1 111221Z 15007KT 21/17 A3014 RMK A01 T02070174  RH  081%=      5-min Rain = 0
KSW1 111222Z 15007KT 21/17 A3014 RMK A01 T02080174  RH  081%=      5-min Rain = 0
KSW1 111223Z 16007KT 21/17 A3014 RMK A01 T02080174  RH  081%=      5-min Rain = 0
KSW1 111224Z 16006KT 21/17 A3014 RMK A01 T02090174  RH  080%=      5-min Rain = 0
KSW1 111225Z 16007KT 21/17 A3014 RMK A01 T02090174  RH  080%=      5-min Rain = 0
KSW1 111226Z 16007KT 21/17 A3014 RMK A01 T02100174  RH  080%=      5-min Rain = 0
KSW1 111227Z 16007KT 21/17 A3014 RMK A01 T02100174  RH  080%=      5-min Rain = 0
KSW1 111228Z 16007KT 21/17 A3014 RMK A01 T02110174  RH  080%=      5-min Rain = 0
KSW1 111229Z 16007KT 21/18 A3014 RMK A01 T02110175  RH  080%=      5-min Rain = 0
KSW1 111230Z 16007KT 21/18 A3014 RMK A01 T02120175  RH  079%=      5-min Rain = 0
KSW1 111231Z 16007KT 21/18 A3014 RMK A01 T02120175  RH  079%=      5-min Rain = 0
KSW1 111232Z 16006KT 21/18 A3014 RMK A01 T02130175  RH  079%=      5-min Rain = 0
KSW1 111233Z 16006KT 21/18 A3014 RMK A01 T02140176  RH  079%=      5-min Rain = 0
KSW1 111234Z 16007KT 21/18 A3014 RMK A01 T02140176  RH  079%=      5-min Rain = 0
KSW1 111235Z 16006KT 22/18 A3014 RMK A01 T02150176  RH  079%=      5-min Rain = 0
KSW1 111236Z 16006KT 22/18 A3014 RMK A01 T02150176  RH  078%=      5-min Rain = 0
KSW1 111237Z 16006KT 22/18 A3014 RMK A01 T02160177  RH  078%=      5-min Rain = 0
KSW1 111238Z 16005KT 22/18 A3014 RMK A01 T02170177  RH  078%=      5-min Rain = 0
KSW1 111239Z 16005KT 22/18 A3014 RMK A01 T02180178  RH  078%=      5-min Rain = 0
KSW1 111240Z 16005KT 22/18 A3014 RMK A01 T02190178  RH  078%=      5-min Rain = 0
KSW1 111241Z 16006KT 22/18 A3014 RMK A01 T02190178  RH  077%=      5-min Rain = 0
KSW1 111242Z 17005KT 22/18 A3014 RMK A01 T02200179  RH  077%=      5-min Rain = 0
KSW1 111243Z 17006KT 22/18 A3014 RMK A01 T02210179  RH  077%=      5-min Rain = 0
KSW1 111244Z 17005KT 22/18 A3014 RMK A01 T02220180  RH  077%=      5-min Rain = 0
KSW1 111245Z 17005KT 22/18 A3014 RMK A01 T02220180  RH  077%=      5-min Rain = 0
KSW1 111246Z 17006KT 22/18 A3014 RMK A01 T02230181  RH  077%=      5-min Rain = 0
KSW1 111247Z 17006KT 23/18 A3014 RMK A01 T02250181  RH  076%=      5-min Rain = 0
KSW1 111248Z 17006KT 23/18 A3014 RMK A01 T02250181  RH  076%=      5-min Rain = 0
KSW1 111249Z 17008KT 23/18 A3014 RMK A01 T02260182  RH  076%=      5-min Rain = 0
KSW1 111250Z 17008KT 23/18 A3014 RMK A01 T02280182  RH  075%=      5-min Rain = 0
KSW1 111251Z 17007KT 23/18 A3014 RMK A01 T02290183  RH  075%=      5-min Rain = 0
KSW1 111252Z 17008KT 23/18 A3014 RMK A01 T02300183  RH  075%=      5-min Rain = 0
KSW1 111253Z 17008KT 23/18 A3014 RMK A01 T02310184  RH  075%=      5-min Rain = 0
KSW1 111254Z 17009KT 23/18 A3014 RMK A01 T02320184  RH  074%=      5-min Rain = 0
KSW1 111255Z 17008KT 23/18 A3014 RMK A01 T02320184  RH  074%=      5-min Rain = 0
KSW1 111256Z 17008KT 23/18 A3014 RMK A01 T02330184  RH  074%=      5-min Rain = 0
KSW1 111257Z 17008KT 23/18 A3014 RMK A01 T02330184  RH  074%=      5-min Rain = 0
KSW1 111258Z 17009KT 23/19 A3014 RMK A01 T02330185  RH  074%=      5-min Rain = 0
KSW1 111259Z 17007KT 23/19 A3014 RMK A01 T02340186  RH  074%=      5-min Rain = 0
KSW1 111300Z 17008KT 23/19 A3014 RMK A01 T02340186  RH  074%=      5-min Rain = 0
KSW1 111301Z 17008KT 24/19 A3014 RMK A01 T02350186  RH  074%=      5-min Rain = 0
KSW1 111302Z 18009KT 24/19 A3014 RMK A01 T02350186  RH  074%=      5-min Rain = 0
KSW1 111303Z 17007KT 24/19 A3014 RMK A01 T02350186  RH  074%=      5-min Rain = 0
KSW1 111304Z 18007KT 24/19 A3014 RMK A01 T02350187  RH  074%=      5-min Rain = 0
KSW1 111305Z 18008KT 24/19 A3014 RMK A01 T02360188  RH  074%=      5-min Rain = 0
KSW1 111306Z 18009KT 24/19 A3014 RMK A01 T02370187  RH  074%=      5-min Rain = 0
KSW1 111307Z 18008KT 24/19 A3014 RMK A01 T02370188  RH  074%=      5-min Rain = 0
KSW1 111308Z 18009KT 24/19 A3014 RMK A01 T02370188  RH  074%=      5-min Rain = 0
KSW1 111309Z 18008KT 24/19 A3014 RMK A01 T02380189  RH  074%=      5-min Rain = 0
KSW1 111310Z 18009KT 24/19 A3014 RMK A01 T02380189  RH  074%=      5-min Rain = 0
KSW1 111311Z 18008KT 24/19 A3014 RMK A01 T02390190  RH  074%=      5-min Rain = 0
KSW1 111312Z 18008KT 24/19 A3014 RMK A01 T02400190  RH  074%=      5-min Rain = 0
KSW1 111313Z 18006KT 24/19 A3014 RMK A01 T02400191  RH  074%=      5-min Rain = 0
KSW1 111314Z 18010KT 24/19 A3014 RMK A01 T02410191  RH  074%=      5-min Rain = 0
KSW1 111315Z 17008KT 24/19 A3014 RMK A01 T02410191  RH  073%=      5-min Rain = 0
KSW1 111316Z 18008KT 24/19 A3014 RMK A01 T02410191  RH  074%=      5-min Rain = 0
KSW1 111317Z 18009KT 24/19 A3014 RMK A01 T02420192  RH  073%=      5-min Rain = 0
KSW1 111318Z 17009KT 24/19 A3014 RMK A01 T02430191  RH  073%=      5-min Rain = 0
KSW1 111319Z 17009KT 24/19 A3014 RMK A01 T02420192  RH  073%=      5-min Rain = 0
KSW1 111320Z 17009KT 24/19 A3014 RMK A01 T02430192  RH  073%=      5-min Rain = 0
KSW1 111321Z 18008KT 24/19 A3014 RMK A01 T02440192  RH  073%=      5-min Rain = 0
KSW1 111322Z 18011KT 24/19 A3014 RMK A01 T02440192  RH  073%=      5-min Rain = 0
KSW1 111323Z 19010KT 24/19 A3014 RMK A01 T02440191  RH  072%=      5-min Rain = 0
KSW1 111324Z 19009KT 24/19 A3014 RMK A01 T02440192  RH  073%=      5-min Rain = 0
KSW1 111325Z 18010KT 24/19 A3014 RMK A01 T02440193  RH  073%=      5-min Rain = 0
KSW1 111326Z 18009KT 25/19 A3014 RMK A01 T02450193  RH  073%=      5-min Rain = 0
KSW1 111327Z 18008KT 25/19 A3014 RMK A01 T02450193  RH  073%=      5-min Rain = 0
KSW1 111328Z 19010KT 25/19 A3015 RMK A01 T02460193  RH  073%=      5-min Rain = 0
KSW1 111329Z 18009KT 25/19 A3015 RMK A01 T02460194  RH  072%=      5-min Rain = 0
KSW1 111330Z 18014KT 25/19 A3015 RMK A01 T02470193  RH  072%=      5-min Rain = 0
KSW1 111331Z 18013KT 25/19 A3015 RMK A01 T02470193  RH  072%=      5-min Rain = 0
KSW1 111332Z 19012KT 25/19 A3015 RMK A01 T02460193  RH  072%=      5-min Rain = 0
KSW1 111333Z 19011KT 25/19 A3015 RMK A01 T02460193  RH  072%=      5-min Rain = 0
KSW1 111334Z 19011KT 25/19 A3015 RMK A01 T02460193  RH  072%=      5-min Rain = 0
KSW1 111335Z 19011KT 25/19 A3015 RMK A01 T02470193  RH  072%=      5-min Rain = 0
KSW1 111336Z 18013KT 25/19 A3015 RMK A01 T02460193  RH  072%=      5-min Rain = 0
KSW1 111337Z 18013KT 25/19 A3015 RMK A01 T02470193  RH  072%=      5-min Rain = 0
KSW1 111338Z 19011KT 25/19 A3015 RMK A01 T02470193  RH  072%=      5-min Rain = 0
KSW1 111339Z 19010KT 25/19 A3015 RMK A01 T02470194  RH  072%=      5-min Rain = 0
KSW1 111340Z 19010KT 25/20 A3015 RMK A01 T02480195  RH  072%=      5-min Rain = 0
KSW1 111341Z 18010KT 25/20 A3015 RMK A01 T02490195  RH  072%=      5-min Rain = 0
KSW1 111342Z 18011KT 25/20 A3015 RMK A01 T02500195  RH  072%=      5-min Rain = 0
KSW1 111343Z 19011KT 25/20 A3015 RMK A01 T02500195  RH  071%=      5-min Rain = 0
KSW1 111344Z 20009KT 25/20 A3015 RMK A01 T02500195  RH  071%=      5-min Rain = 0
KSW1 111345Z 20013KT 25/20 A3015 RMK A01 T02510195  RH  071%=      5-min Rain = 0
KSW1 111346Z 20014KT 25/19 A3015 RMK A01 T02510194  RH  071%=      5-min Rain = 0
KSW1 111347Z 20013KT 25/19 A3015 RMK A01 T02500194  RH  071%=      5-min Rain = 0
KSW1 111348Z 20011KT 25/19 A3015 RMK A01 T02500194  RH  071%=      5-min Rain = 0
KSW1 111349Z 20012KT 25/20 A3015 RMK A01 T02500195  RH  071%=      5-min Rain = 0
KSW1 111350Z 20013KT 25/19 A3015 RMK A01 T02500194  RH  071%=      5-min Rain = 0
KSW1 111351Z 20012KT 25/19 A3015 RMK A01 T02500194  RH  071%=      5-min Rain = 0
KSW1 111352Z 20012KT 25/19 A3015 RMK A01 T02500194  RH  071%=      5-min Rain = 0
KSW1 111353Z 20010KT 25/20 A3016 RMK A01 T02500195  RH  071%=      5-min Rain = 0
KSW1 111354Z 20010KT 25/20 A3016 RMK A01 T02510195  RH  071%=      5-min Rain = 0
KSW1 111355Z 19010KT 25/20 A3016 RMK A01 T02520196  RH  071%=      5-min Rain = 0
KSW1 111356Z 19013KT 25/20 A3016 RMK A01 T02530195  RH  070%=      5-min Rain = 0
KSW1 111357Z 19012KT 25/20 A3016 RMK A01 T02540195  RH  070%=      5-min Rain = 0
KSW1 111358Z 19009KT 25/20 A3016 RMK A01 T02540196  RH  071%=      5-min Rain = 0
KSW1 111359Z 18011KT 25/20 A3016 RMK A01 T02540197  RH  071%=      5-min Rain = 0
KSW1 111400Z 20012KT 26/20 A3016 RMK A01 T02550196  RH  070%=      5-min Rain = 0
KSW1 111401Z 19012KT 26/20 A3016 RMK A01 T02550196  RH  070%=      5-min Rain = 0
KSW1 111402Z 20010KT 26/20 A3016 RMK A01 T02550196  RH  070%=      5-min Rain = 0
KSW1 111403Z 18010KT 26/20 A3016 RMK A01 T02550197  RH  070%=      5-min Rain = 0
KSW1 111404Z 19010KT 26/20 A3016 RMK A01 T02560197  RH  070%=      5-min Rain = 0
KSW1 111405Z 19010KT 26/20 A3016 RMK A01 T02570197  RH  069%=      5-min Rain = 0
KSW1 111406Z 19009KT 26/20 A3016 RMK A01 T02580198  RH  070%=      5-min Rain = 0
KSW1 111407Z 18011KT 26/20 A3016 RMK A01 T02590198  RH  069%=      5-min Rain = 0
KSW1 111408Z 19009KT 26/20 A3015 RMK A01 T02590198  RH  069%=      5-min Rain = 0
KSW1 111409Z 19008KT 26/20 A3015 RMK A01 T02610200  RH  069%=      5-min Rain = 0
KSW1 111410Z 19010KT 26/20 A3015 RMK A01 T02630200  RH  069%=      5-min Rain = 0
KSW1 111411Z 19011KT 26/20 A3015 RMK A01 T02640199  RH  067%=      5-min Rain = 0
KSW1 111412Z 19010KT 26/20 A3016 RMK A01 T02630198  RH  068%=      5-min Rain = 0
KSW1 111413Z 19010KT 26/20 A3015 RMK A01 T02620198  RH  068%=      5-min Rain = 0
KSW1 111414Z 20009KT 26/20 A3015 RMK A01 T02620199  RH  068%=      5-min Rain = 0
KSW1 111415Z 20011KT 26/20 A3015 RMK A01 T02620199  RH  068%=      5-min Rain = 0
KSW1 111416Z 20011KT 26/20 A3015 RMK A01 T02630197  RH  067%=      5-min Rain = 0
KSW1 111417Z 20011KT 26/20 A3016 RMK A01 T02630198  RH  067%=      5-min Rain = 0
KSW1 111418Z 19012KT 26/20 A3015 RMK A01 T02630196  RH  067%=      5-min Rain = 0
KSW1 111419Z 19013KT 26/20 A3015 RMK A01 T02620197  RH  067%=      5-min Rain = 0
KSW1 111420Z 19011KT 26/20 A3016 RMK A01 T02620197  RH  067%=      5-min Rain = 0
KSW1 111421Z 19012KT 26/20 A3016 RMK A01 T02620196  RH  067%=      5-min Rain = 0
KSW1 111422Z 19012KT 26/20 A3016 RMK A01 T02620196  RH  067%=      5-min Rain = 0
KSW1 111423Z 19010G15KT 26/20 A3016 RMK A01 T02620196  RH  067%=      5-min Rain = 0
KSW1 111424Z 18012KT 26/20 A3016 RMK A01 T02630196  RH  067%=      5-min Rain = 0
KSW1 111425Z 20011KT 26/20 A3016 RMK A01 T02630197  RH  067%=      5-min Rain = 0
KSW1 111426Z 20013KT 27/20 A3016 RMK A01 T02650196  RH  066%=      5-min Rain = 0
KSW1 111427Z 20012KT 27/20 A3016 RMK A01 T02650195  RH  066%=      5-min Rain = 0
KSW1 111428Z 20011KT 27/20 A3016 RMK A01 T02650197  RH  066%=      5-min Rain = 0
KSW1 111429Z 20011KT 27/20 A3016 RMK A01 T02650196  RH  066%=      5-min Rain = 0
KSW1 111430Z 21012KT 27/20 A3016 RMK A01 T02650196  RH  066%=      5-min Rain = 0
KSW1 111431Z 20010KT 27/20 A3016 RMK A01 T02650196  RH  066%=      5-min Rain = 0
KSW1 111432Z 20009KT 27/20 A3016 RMK A01 T02660198  RH  066%=      5-min Rain = 0
KSW1 111433Z 20011KT 27/20 A3016 RMK A01 T02680198  RH  065%=      5-min Rain = 0
KSW1 111434Z 21008KT 27/20 A3016 RMK A01 T02680198  RH  065%=      5-min Rain = 0
KSW1 111435Z 22009KT 27/20 A3016 RMK A01 T02690199  RH  066%=      5-min Rain = 0
KSW1 111436Z 21010KT 27/20 A3016 RMK A01 T02700199  RH  065%=      5-min Rain = 0
KSW1 111437Z 21009KT 27/20 A3016 RMK A01 T02710197  RH  064%=      5-min Rain = 0
KSW1 111438Z 20009G14KT 27/20 A3016 RMK A01 T02710199  RH  065%=      5-min Rain = 0
KSW1 111439Z 19012KT 27/20 A3016 RMK A01 T02710197  RH  064%=      5-min Rain = 0
KSW1 111440Z 19012KT 27/20 A3016 RMK A01 T02710196  RH  064%=      5-min Rain = 0
KSW1 111441Z 19010KT 27/20 A3016 RMK A01 T02700197  RH  064%=      5-min Rain = 0
KSW1 111442Z 21009KT 27/20 A3016 RMK A01 T02710197  RH  064%=      5-min Rain = 0
KSW1 111443Z 21012KT 27/20 A3016 RMK A01 T02730196  RH  063%=      5-min Rain = 0
KSW1 111444Z 20010KT 27/20 A3016 RMK A01 T02720196  RH  063%=      5-min Rain = 0
KSW1 111445Z 20011KT 27/20 A3016 RMK A01 T02720196  RH  063%=      5-min Rain = 0
KSW1 111446Z 20010KT 27/20 A3016 RMK A01 T02730196  RH  063%=      5-min Rain = 0
KSW1 111447Z 20010KT 27/20 A3016 RMK A01 T02720195  RH  063%=      5-min Rain = 0
KSW1 111448Z 20010KT 27/20 A3016 RMK A01 T02730197  RH  063%=      5-min Rain = 0
KSW1 111449Z 20010KT 27/20 A3016 RMK A01 T02740196  RH  062%=      5-min Rain = 0
KSW1 111450Z 21010KT 27/20 A3016 RMK A01 T02740196  RH  063%=      5-min Rain = 0
KSW1 111451Z 21011KT 27/20 A3016 RMK A01 T02740197  RH  063%=      5-min Rain = 0
KSW1 111452Z 20009KT 27/20 A3016 RMK A01 T02740197  RH  063%=      5-min Rain = 0
KSW1 111453Z 21010KT 27/20 A3016 RMK A01 T02740198  RH  063%=      5-min Rain = 0
KSW1 111454Z 21011KT 28/20 A3016 RMK A01 T02750197  RH  063%=      5-min Rain = 0
KSW1 111455Z 20009KT 28/20 A3016 RMK A01 T02750197  RH  063%=      5-min Rain = 0
KSW1 111456Z 20008KT 28/20 A3016 RMK A01 T02750198  RH  063%=      5-min Rain = 0
KSW1 111457Z 19008KT 28/20 A3016 RMK A01 T02750198  RH  063%=      5-min Rain = 0
KSW1 111458Z 19009KT 28/20 A3016 RMK A01 T02760197  RH  062%=      5-min Rain = 0
KSW1 111459Z 19009KT 28/20 A3016 RMK A01 T02760197  RH  062%=      5-min Rain = 0
KSW1 111500Z 18010KT 28/20 A3016 RMK A01 T02760196  RH  062%=      5-min Rain = 0
KSW1 111501Z 19008KT 28/20 A3016 RMK A01 T02760198  RH  062%=      5-min Rain = 0
KSW1 111502Z 18009KT 28/20 A3016 RMK A01 T02800200  RH  062%=      5-min Rain = 0
KSW1 111503Z 18010KT 28/20 A3016 RMK A01 T02810198  RH  061%=      5-min Rain = 0
KSW1 111504Z 18008KT 28/20 A3016 RMK A01 T02800199  RH  062%=      5-min Rain = 0
KSW1 111505Z 18008KT 28/20 A3016 RMK A01 T02800198  RH  061%=      5-min Rain = 0
KSW1 111506Z 19010KT 28/20 A3016 RMK A01 T02810198  RH  061%=      5-min Rain = 0
KSW1 111507Z 18010KT 28/20 A3016 RMK A01 T02810198  RH  061%=      5-min Rain = 0
KSW1 111508Z 18011KT 28/20 A3016 RMK A01 T02810198  RH  061%=      5-min Rain = 0
KSW1 111509Z 18011KT 28/20 A3016 RMK A01 T02800197  RH  061%=      5-min Rain = 0
KSW1 111510Z 18011KT 28/20 A3016 RMK A01 T02800197  RH  061%=      5-min Rain = 0
KSW1 111511Z 18011KT 28/20 A3016 RMK A01 T02790197  RH  061%=      5-min Rain = 0
KSW1 111512Z 17010KT 28/20 A3016 RMK A01 T02800197  RH  061%=      5-min Rain = 0
KSW1 111513Z 17010KT 28/20 A3016 RMK A01 T02800197  RH  061%=      5-min Rain = 0
KSW1 111514Z 18011KT 28/20 A3016 RMK A01 T02820198  RH  060%=      5-min Rain = 0
KSW1 111515Z 19011KT 28/20 A3016 RMK A01 T02830196  RH  059%=      5-min Rain = 0
KSW1 111516Z 19011KT 28/20 A3016 RMK A01 T02830196  RH  059%=      5-min Rain = 0
KSW1 111517Z 18009KT 28/20 A3016 RMK A01 T02810196  RH  060%=      5-min Rain = 0
KSW1 111518Z 20008KT 28/20 A3016 RMK A01 T02810197  RH  060%=      5-min Rain = 0
KSW1 111519Z 19008KT 28/20 A3016 RMK A01 T02820197  RH  060%=      5-min Rain = 0
KSW1 111520Z 20009KT 28/20 A3016 RMK A01 T02830198  RH  060%=      5-min Rain = 0
KSW1 111521Z 20010KT 28/20 A3016 RMK A01 T02830196  RH  059%=      5-min Rain = 0
KSW1 111522Z 19009KT 28/20 A3016 RMK A01 T02830196  RH  059%=      5-min Rain = 0
KSW1 111523Z 20011KT 28/20 A3016 RMK A01 T02830196  RH  059%=      5-min Rain = 0
KSW1 111524Z 20009KT 28/20 A3016 RMK A01 T02830196  RH  059%=      5-min Rain = 0
KSW1 111525Z 20008KT 28/20 A3016 RMK A01 T02830197  RH  060%=      5-min Rain = 0
KSW1 111526Z 21006KT 28/20 A3016 RMK A01 T02840198  RH  060%=      5-min Rain = 0
KSW1 111527Z 18009KT 29/20 A3016 RMK A01 T02850198  RH  059%=      5-min Rain = 0
KSW1 111528Z 20009KT 29/20 A3016 RMK A01 T02880199  RH  059%=      5-min Rain = 0
KSW1 111529Z 21008KT 29/20 A3016 RMK A01 T02890197  RH  058%=      5-min Rain = 0
KSW1 111530Z 19009KT 29/20 A3016 RMK A01 T02900198  RH  058%=      5-min Rain = 0
KSW1 111531Z 19008KT 29/20 A3016 RMK A01 T02870195  RH  058%=      5-min Rain = 0
KSW1 111532Z 19008KT 29/20 A3016 RMK A01 T02860197  RH  059%=      5-min Rain = 0
KSW1 111533Z 17009KT 29/20 A3016 RMK A01 T02860197  RH  058%=      5-min Rain = 0
KSW1 111534Z 17010KT 29/20 A3016 RMK A01 T02880198  RH  058%=      5-min Rain = 0
KSW1 111535Z 17010KT 29/20 A3016 RMK A01 T02890197  RH  057%=      5-min Rain = 0
KSW1 111536Z 18009KT 29/20 A3016 RMK A01 T02870196  RH  058%=      5-min Rain = 0
KSW1 111537Z 18010KT 29/20 A3016 RMK A01 T02880197  RH  058%=      5-min Rain = 0
KSW1 111538Z 18012KT 29/20 A3016 RMK A01 T02900196  RH  057%=      5-min Rain = 0
KSW1 111539Z 19009KT 29/20 A3016 RMK A01 T02910197  RH  057%=      5-min Rain = 0
KSW1 111540Z 21008KT 29/20 A3016 RMK A01 T02900197  RH  057%=      5-min Rain = 0
KSW1 111541Z 20007KT 29/20 A3016 RMK A01 T02920197  RH  057%=      5-min Rain = 0
KSW1 111542Z 21008KT 29/20 A3016 RMK A01 T02930197  RH  056%=      5-min Rain = 0
KSW1 111543Z 20008KT 29/20 A3016 RMK A01 T02930197  RH  056%=      5-min Rain = 0
KSW1 111544Z 21008KT 29/20 A3016 RMK A01 T02930197  RH  056%=      5-min Rain = 0
KSW1 111545Z 21006KT 29/20 A3016 RMK A01 T02930197  RH  056%=      5-min Rain = 0
KSW1 111546Z 22009G14KT 30/20 A3016 RMK A01 T02950197  RH  056%=      5-min Rain = 0
KSW1 111547Z 20009KT 30/20 A3016 RMK A01 T02950196  RH  055%=      5-min Rain = 0
KSW1 111548Z 20008KT 30/20 A3016 RMK A01 T02950198  RH  056%=      5-min Rain = 0
KSW1 111549Z 19007KT 30/20 A3016 RMK A01 T02970200  RH  056%=      5-min Rain = 0
KSW1 111550Z 18006KT 30/20 A3016 RMK A01 T02990200  RH  055%=      5-min Rain = 0
KSW1 111551Z 18009KT 30/20 A3016 RMK A01 T03010199  RH  054%=      5-min Rain = 0
KSW1 111552Z 19008KT 30/20 A3016 RMK A01 T03010201  RH  055%=      5-min Rain = 0
KSW1 111553Z 18010KT 30/20 A3016 RMK A01 T03010198  RH  054%=      5-min Rain = 0
KSW1 111554Z 19009KT 30/20 A3016 RMK A01 T02990195  RH  054%=      5-min Rain = 0
KSW1 111555Z 20009KT 30/20 A3015 RMK A01 T02970197  RH  055%=      5-min Rain = 0
KSW1 111556Z 20012KT 30/20 A3015 RMK A01 T02970195  RH  054%=      5-min Rain = 0
KSW1 111557Z 19011KT 30/20 A3016 RMK A01 T02970195  RH  054%=      5-min Rain = 0
KSW1 111558Z 19008KT 30/19 A3015 RMK A01 T02960194  RH  054%=      5-min Rain = 0
KSW1 111559Z 19009KT 30/19 A3015 RMK A01 T02960194  RH  054%=      5-min Rain = 0
KSW1 111600Z 18012KT 30/19 A3015 RMK A01 T02960193  RH  054%=      5-min Rain = 0
KSW1 111601Z 19009KT 30/19 A3015 RMK A01 T02970193  RH  054%=      5-min Rain = 0
KSW1 111602Z 18008KT 30/19 A3015 RMK A01 T02970191  RH  053%=      5-min Rain = 0
KSW1 111603Z 19008KT 30/19 A3015 RMK A01 T02950194  RH  055%=      5-min Rain = 0
KSW1 111604Z 20010KT 30/19 A3015 RMK A01 T02960194  RH  054%=      5-min Rain = 0
KSW1 111605Z 19012KT 30/19 A3015 RMK A01 T02970193  RH  053%=      5-min Rain = 0
KSW1 111606Z 19011KT 30/19 A3015 RMK A01 T02980194  RH  054%=      5-min Rain = 0
KSW1 111607Z 20009KT 30/19 A3016 RMK A01 T02980194  RH  054%=      5-min Rain = 0
KSW1 111608Z 18007KT 30/19 A3016 RMK A01 T02970193  RH  054%=      5-min Rain = 0
KSW1 111609Z 20008KT 30/19 A3016 RMK A01 T02950192  RH  054%=      5-min Rain = 0
KSW1 111610Z 18009KT 30/19 A3016 RMK A01 T02960191  RH  053%=      5-min Rain = 0
KSW1 111611Z 19009KT 30/19 A3016 RMK A01 T02970194  RH  054%=      5-min Rain = 0
KSW1 111612Z 18008KT 30/19 A3016 RMK A01 T02980193  RH  053%=      5-min Rain = 0
KSW1 111613Z 19009KT 30/19 A3016 RMK A01 T02980194  RH  054%=      5-min Rain = 0
KSW1 111614Z 19012KT 30/19 A3016 RMK A01 T02980191  RH  053%=      5-min Rain = 0
KSW1 111615Z 20010KT 30/19 A3016 RMK A01 T02990190  RH  052%=      5-min Rain = 0
KSW1 111616Z 20010KT 30/19 A3016 RMK A01 T03020193  RH  052%=      5-min Rain = 0
KSW1 111617Z 20009KT 30/19 A3016 RMK A01 T03020192  RH  052%=      5-min Rain = 0
KSW1 111618Z 21012KT 30/19 A3016 RMK A01 T03030193  RH  052%=      5-min Rain = 0
KSW1 111619Z 22010KT 30/19 A3016 RMK A01 T03020191  RH  052%=      5-min Rain = 0
KSW1 111620Z 22010KT 30/19 A3015 RMK A01 T03010191  RH  052%=      5-min Rain = 0
KSW1 111621Z 21007KT 30/19 A3015 RMK A01 T03020193  RH  052%=      5-min Rain = 0
KSW1 111622Z 21010KT 31/20 A3015 RMK A01 T03050196  RH  052%=      5-min Rain = 0
KSW1 111623Z 22010KT 31/19 A3015 RMK A01 T03070190  RH  050%=      5-min Rain = 0
KSW1 111624Z 23007KT 31/19 A3015 RMK A01 T03060191  RH  050%=      5-min Rain = 0
KSW1 111625Z 22006KT 31/19 A3015 RMK A01 T03050192  RH  051%=      5-min Rain = 0
KSW1 111626Z 20008KT 31/19 A3015 RMK A01 T03070194  RH  051%=      5-min Rain = 0
KSW1 111627Z 18006KT 31/19 A3015 RMK A01 T03060190  RH  050%=      5-min Rain = 0
KSW1 111628Z 20005KT 30/19 A3015 RMK A01 T03040188  RH  050%=      5-min Rain = 0
KSW1 111629Z 21005KT 30/19 A3015 RMK A01 T03020189  RH  051%=      5-min Rain = 0
KSW1 111630Z 21011KT 30/19 A3015 RMK A01 T03020190  RH  051%=      5-min Rain = 0
KSW1 111631Z 21011KT 30/19 A3015 RMK A01 T03040188  RH  050%=      5-min Rain = 0
KSW1 111632Z 21009KT 30/19 A3015 RMK A01 T03040191  RH  051%=      5-min Rain = 0
KSW1 111633Z 18007KT 30/19 A3015 RMK A01 T03030192  RH  051%=      5-min Rain = 0
KSW1 111634Z 21007KT 30/19 A3015 RMK A01 T03040194  RH  052%=      5-min Rain = 0
KSW1 111635Z 20009KT 31/19 A3015 RMK A01 T03070193  RH  051%=      5-min Rain = 0
KSW1 111636Z 21007KT 31/19 A3015 RMK A01 T03080192  RH  050%=      5-min Rain = 0
KSW1 111637Z 20006KT 31/19 A3015 RMK A01 T03070192  RH  050%=      5-min Rain = 0
KSW1 111638Z 20010KT 31/19 A3015 RMK A01 T03050194  RH  051%=      5-min Rain = 0
KSW1 111639Z 19011KT 31/19 A3015 RMK A01 T03060192  RH  051%=      5-min Rain = 0
KSW1 111640Z 19009KT 30/19 A3015 RMK A01 T03040191  RH  051%=      5-min Rain = 0
KSW1 111641Z 21007KT 30/19 A3015 RMK A01 T03020192  RH  052%=      5-min Rain = 0
KSW1 111642Z 22007KT 30/19 A3015 RMK A01 T03030191  RH  051%=      5-min Rain = 0
KSW1 111643Z 22008KT 30/19 A3015 RMK A01 T03040190  RH  051%=      5-min Rain = 0
KSW1 111644Z 17010KT 30/19 A3015 RMK A01 T03040190  RH  051%=      5-min Rain = 0
KSW1 111645Z 15008KT 31/18 A3015 RMK A01 T03060183  RH  048%=      5-min Rain = 0
KSW1 111646Z 15007KT 31/18 A3015 RMK A01 T03070182  RH  047%=      5-min Rain = 0
KSW1 111647Z 17007KT 31/18 A3015 RMK A01 T03070183  RH  047%=      5-min Rain = 0
KSW1 111648Z 18009KT 31/19 A3015 RMK A01 T03070186  RH  049%=      5-min Rain = 0
KSW1 111649Z 20007KT 31/19 A3015 RMK A01 T03070192  RH  050%=      5-min Rain = 0
KSW1 111650Z 18011KT 31/19 A3015 RMK A01 T03080188  RH  049%=      5-min Rain = 0
KSW1 111651Z 18011KT 31/19 A3015 RMK A01 T03100190  RH  049%=      5-min Rain = 0
KSW1 111652Z 20009KT 31/19 A3015 RMK A01 T03080187  RH  049%=      5-min Rain = 0
KSW1 111653Z 21009KT 31/19 A3015 RMK A01 T03060186  RH  049%=      5-min Rain = 0
KSW1 111654Z 22007KT 31/19 A3015 RMK A01 T03050185  RH  049%=      5-min Rain = 0
KSW1 111655Z 23004KT 30/18 A3015 RMK A01 T03040183  RH  049%=      5-min Rain = 0
KSW1 111656Z 23002KT 30/19 A3015 RMK A01 T03040186  RH  049%=      5-min Rain = 0
KSW1 111657Z 19004KT 31/18 A3015 RMK A01 T03070184  RH  048%=      5-min Rain = 0
KSW1 111658Z 17007KT 31/19 A3015 RMK A01 T03080185  RH  048%=      5-min Rain = 0
KSW1 111659Z 18004KT 31/19 A3015 RMK A01 T03110186  RH  047%=      5-min Rain = 0
KSW1 111700Z 13003KT 31/19 A3015 RMK A01 T03120189  RH  048%=      5-min Rain = 0
KSW1 111701Z 12006KT 31/19 A3015 RMK A01 T03140185  RH  046%=      5-min Rain = 0
KSW1 111702Z 15005KT 32/18 A3015 RMK A01 T03150183  RH  045%=      5-min Rain = 0
KSW1 111703Z 14005KT 31/19 A3015 RMK A01 T03140185  RH  046%=      5-min Rain = 0
KSW1 111704Z 17006KT 31/19 A3015 RMK A01 T03130186  RH  047%=      5-min Rain = 0
KSW1 111705Z 18008KT 31/19 A3015 RMK A01 T03120188  RH  048%=      5-min Rain = 0
KSW1 111706Z 17011KT 32/18 A3015 RMK A01 T03160181  RH  045%=      5-min Rain = 0
KSW1 111707Z 18011KT 32/17 A3015 RMK A01 T03190167  RH  040%=      5-min Rain = 0
KSW1 111708Z 18008KT 32/17 A3015 RMK A01 T03160165  RH  040%=      5-min Rain = 0
KSW1 111709Z 18006KT 31/16 A3015 RMK A01 T03140159  RH  039%=      5-min Rain = 0
KSW1 111710Z 18006KT 31/16 A3015 RMK A01 T03120164  RH  041%=      5-min Rain = 0
KSW1 111711Z 16005KT 31/17 A3015 RMK A01 T03110171  RH  043%=      5-min Rain = 0
KSW1 111712Z 18007KT 31/17 A3015 RMK A01 T03100172  RH  044%=      5-min Rain = 0
KSW1 111713Z 15009KT 31/17 A3015 RMK A01 T03130169  RH  042%=      5-min Rain = 0
KSW1 111714Z 21011KT 32/18 A3015 RMK A01 T03160176  RH  043%=      5-min Rain = 0
KSW1 111715Z 18011KT 32/17 A3015 RMK A01 T03150169  RH  041%=      5-min Rain = 0
KSW1 111716Z 19007KT 31/16 A3015 RMK A01 T03130161  RH  040%=      5-min Rain = 0
KSW1 111717Z 18010G16KT 31/17 A3015 RMK A01 T03130167  RH  042%=      5-min Rain = 0
KSW1 111718Z 16011KT 32/16 A3015 RMK A01 T03170162  RH  039%=      5-min Rain = 0
KSW1 111719Z 15011KT 32/17 A3015 RMK A01 T03190165  RH  040%=      5-min Rain = 0
KSW1 111720Z 14010KT 32/17 A3015 RMK A01 T03190165  RH  040%=      5-min Rain = 0
KSW1 111721Z 15012KT 32/17 A3014 RMK A01 T03170165  RH  040%=      5-min Rain = 0
KSW1 111722Z 16011KT 32/16 A3014 RMK A01 T03180161  RH  039%=      5-min Rain = 0
KSW1 111723Z 15009KT 32/15 A3014 RMK A01 T03180154  RH  037%=      5-min Rain = 0
KSW1 111724Z 16008KT 32/16 A3014 RMK A01 T03200158  RH  038%=      5-min Rain = 0
KSW1 111725Z 14010G16KT 32/16 A3014 RMK A01 T03190164  RH  039%=      5-min Rain = 0
KSW1 111726Z 14013KT 32/15 A3014 RMK A01 T03190152  RH  037%=      5-min Rain = 0
KSW1 111727Z 16014KT 32/16 A3014 RMK A01 T03190156  RH  037%=      5-min Rain = 0
KSW1 111728Z 16010KT 32/16 A3014 RMK A01 T03200163  RH  039%=      5-min Rain = 0
KSW1 111729Z 16010KT 32/16 A3014 RMK A01 T03200163  RH  039%=      5-min Rain = 0
KSW1 111730Z 17010KT 32/17 A3014 RMK A01 T03180166  RH  040%=      5-min Rain = 0
KSW1 111731Z 18011KT 32/17 A3014 RMK A01 T03170167  RH  040%=      5-min Rain = 0
KSW1 111732Z 17012KT 32/17 A3014 RMK A01 T03180167  RH  040%=      5-min Rain = 0
KSW1 111733Z 14009KT 32/16 A3014 RMK A01 T03200162  RH  039%=      5-min Rain = 0
KSW1 111734Z 15007KT 32/17 A3014 RMK A01 T03210165  RH  039%=      5-min Rain = 0
KSW1 111735Z 16008KT 32/17 A3014 RMK A01 T03210167  RH  040%=      5-min Rain = 0
KSW1 111736Z 17008KT 32/17 A3014 RMK A01 T03210172  RH  041%=      5-min Rain = 0
KSW1 111737Z 18009KT 32/17 A3014 RMK A01 T03220171  RH  041%=      5-min Rain = 0
KSW1 111738Z 20009KT 32/18 A3014 RMK A01 T03220177  RH  042%=      5-min Rain = 0
KSW1 111739Z 19011KT 33/18 A3014 RMK A01 T03250178  RH  042%=      5-min Rain = 0
KSW1 111740Z 18014KT 33/18 A3014 RMK A01 T03250179  RH  042%=      5-min Rain = 0
KSW1 111741Z 17013KT 32/18 A3014 RMK A01 T03240176  RH  041%=      5-min Rain = 0
KSW1 111742Z 19013KT 33/17 A3014 RMK A01 T03250173  RH  040%=      5-min Rain = 0
KSW1 111743Z 18011KT 32/17 A3014 RMK A01 T03230174  RH  041%=      5-min Rain = 0
KSW1 111744Z 17011KT 32/17 A3014 RMK A01 T03200173  RH  042%=      5-min Rain = 0
KSW1 111745Z 17011KT 32/17 A3014 RMK A01 T03200171  RH  041%=      5-min Rain = 0
KSW1 111746Z 17008KT 32/17 A3014 RMK A01 T03190172  RH  042%=      5-min Rain = 0
KSW1 111747Z 16008KT 32/17 A3014 RMK A01 T03190173  RH  042%=      5-min Rain = 0
KSW1 111748Z 16011KT 32/17 A3014 RMK A01 T03190170  RH  041%=      5-min Rain = 0
KSW1 111749Z 17014KT 32/17 A3014 RMK A01 T03200173  RH  042%=      5-min Rain = 0
KSW1 111750Z 18013KT 32/18 A3014 RMK A01 T03210176  RH  042%=      5-min Rain = 0
KSW1 111751Z 17010KT 32/17 A3014 RMK A01 T03210174  RH  042%=      5-min Rain = 0
KSW1 111752Z 16007KT 32/17 A3014 RMK A01 T03160172  RH  042%=      5-min Rain = 0
KSW1 111753Z 16007KT 31/18 A3014 RMK A01 T03130175  RH  044%=      5-min Rain = 0
KSW1 111754Z 17012KT 31/18 A3014 RMK A01 T03130178  RH  045%=      5-min Rain = 0
KSW1 111755Z 16010KT 31/18 A3014 RMK A01 T03140177  RH  044%=      5-min Rain = 0
KSW1 111756Z 17011KT 32/18 A3014 RMK A01 T03160177  RH  044%=      5-min Rain = 0
KSW1 111757Z 17009KT 32/18 A3014 RMK A01 T03170178  RH  044%=      5-min Rain = 0
KSW1 111758Z 18008KT 32/18 A3014 RMK A01 T03180176  RH  043%=      5-min Rain = 0
KSW1 111759Z 16012KT 32/18 A3014 RMK A01 T03190176  RH  042%=      5-min Rain = 0
KSW1 111800Z 16011KT 32/17 A3014 RMK A01 T03210174  RH  042%=      5-min Rain = 0
KSW1 111801Z 16010KT 32/17 A3014 RMK A01 T03220174  RH  041%=      5-min Rain = 0
KSW1 111802Z 17010G15KT 32/18 A3013 RMK A01 T03230177  RH  042%=      5-min Rain = 0
KSW1 111803Z 19014KT 33/18 A3013 RMK A01 T03250176  RH  041%=      5-min Rain = 0
KSW1 111804Z 19012G17KT 32/18 A3013 RMK A01 T03240178  RH  042%=      5-min Rain = 0
KSW1 111805Z 20012KT 32/18 A3013 RMK A01 T03230177  RH  042%=      5-min Rain = 0
KSW1 111806Z 19009KT 32/18 A3013 RMK A01 T03210178  RH  043%=      5-min Rain = 0
KSW1 111807Z 17013KT 32/18 A3013 RMK A01 T03240179  RH  042%=      5-min Rain = 0
KSW1 111808Z 15011KT 32/18 A3013 RMK A01 T03240176  RH  041%=      5-min Rain = 0
KSW1 111809Z 15006KT 32/18 A3013 RMK A01 T03210176  RH  042%=      5-min Rain = 0
KSW1 111810Z 19008KT 32/18 A3013 RMK A01 T03210176  RH  042%=      5-min Rain = 0
KSW1 111811Z 19010G15KT 32/18 A3013 RMK A01 T03190176  RH  042%=      5-min Rain = 0
KSW1 111812Z 19012KT 32/17 A3013 RMK A01 T03200174  RH  042%=      5-min Rain = 0
KSW1 111813Z 19013G18KT 32/18 A3013 RMK A01 T03220179  RH  043%=      5-min Rain = 0
KSW1 111814Z 18014KT 33/18 A3013 RMK A01 T03260179  RH  042%=      5-min Rain = 0
KSW1 111815Z 18009KT 32/18 A3013 RMK A01 T03240176  RH  041%=      5-min Rain = 0
KSW1 111816Z 18007KT 32/18 A3013 RMK A01 T03210178  RH  042%=      5-min Rain = 0
KSW1 111817Z 15008KT 32/18 A3013 RMK A01 T03230179  RH  042%=      5-min Rain = 0
KSW1 111818Z 14008KT 32/18 A3013 RMK A01 T03240178  RH  042%=      5-min Rain = 0
KSW1 111819Z 15012G17KT 33/18 A3013 RMK A01 T03250179  RH  042%=      5-min Rain = 0
KSW1 111820Z 18014KT 33/18 A3013 RMK A01 T03290181  RH  042%=      5-min Rain = 0
KSW1 111821Z 18013G18KT 33/18 A3013 RMK A01 T03290181  RH  041%=      5-min Rain = 0
KSW1 111822Z 17009KT 33/18 A3013 RMK A01 T03290181  RH  041%=      5-min Rain = 0
KSW1 111823Z 18008KT 33/18 A3013 RMK A01 T03300179  RH  041%=      5-min Rain = 0
KSW1 111824Z 20009KT 33/18 A3013 RMK A01 T03290176  RH  040%=      5-min Rain = 0
KSW1 111825Z 20009KT 32/18 A3013 RMK A01 T03240175  RH  041%=      5-min Rain = 0
KSW1 111826Z 19008KT 32/18 A3013 RMK A01 T03230177  RH  042%=      5-min Rain = 0
KSW1 111827Z 20008KT 32/18 A3013 RMK A01 T03230177  RH  042%=      5-min Rain = 0
KSW1 111828Z 20007KT 32/18 A3013 RMK A01 T03240177  RH  041%=      5-min Rain = 0
KSW1 111829Z 20010KT 33/18 A3013 RMK A01 T03260178  RH  041%=      5-min Rain = 0
KSW1 111830Z 19008KT 33/18 A3013 RMK A01 T03270176  RH  041%=      5-min Rain = 0
KSW1 111831Z 16010KT 32/18 A3013 RMK A01 T03240177  RH  042%=      5-min Rain = 0
KSW1 111832Z 15009KT 33/18 A3013 RMK A01 T03250178  RH  042%=      5-min Rain = 0
KSW1 111833Z 15012G17KT 33/18 A3012 RMK A01 T03260177  RH  041%=      5-min Rain = 0
KSW1 111834Z 16009KT 33/18 A3012 RMK A01 T03260179  RH  042%=      5-min Rain = 0
KSW1 111835Z 16008KT 33/18 A3012 RMK A01 T03260178  RH  041%=      5-min Rain = 0
KSW1 111836Z 16011G16KT 32/18 A3012 RMK A01 T03240177  RH  042%=      5-min Rain = 0
KSW1 111837Z 17012KT 32/18 A3012 RMK A01 T03200175  RH  042%=      5-min Rain = 0
KSW1 111838Z 18008KT 32/18 A3012 RMK A01 T03180180  RH  044%=      5-min Rain = 0
KSW1 111839Z 19007KT 32/18 A3012 RMK A01 T03220181  RH  043%=      5-min Rain = 0
KSW1 111840Z 18009KT 32/18 A3012 RMK A01 T03240180  RH  042%=      5-min Rain = 0
KSW1 111841Z 16009G14KT 32/18 A3012 RMK A01 T03220179  RH  043%=      5-min Rain = 0
KSW1 111842Z 15013KT 32/18 A3012 RMK A01 T03210178  RH  043%=      5-min Rain = 0
KSW1 111843Z 14013KT 32/18 A3012 RMK A01 T03240176  RH  041%=      5-min Rain = 0
KSW1 111844Z 15012KT 33/18 A3012 RMK A01 T03250177  RH  041%=      5-min Rain = 0
KSW1 111845Z 16011KT 33/18 A3012 RMK A01 T03260177  RH  041%=      5-min Rain = 0
KSW1 111846Z 18013KT 33/18 A3012 RMK A01 T03270176  RH  041%=      5-min Rain = 0
KSW1 111847Z 18012KT 33/17 A3012 RMK A01 T03280172  RH  039%=      5-min Rain = 0
KSW1 111848Z 17010KT 33/17 A3012 RMK A01 T03290172  RH  039%=      5-min Rain = 0
KSW1 111849Z 17009KT 33/17 A3012 RMK A01 T03270172  RH  040%=      5-min Rain = 0
KSW1 111850Z 16009KT 33/17 A3011 RMK A01 T03260173  RH  040%=      5-min Rain = 0
KSW1 111851Z 19012G17KT 33/18 A3011 RMK A01 T03270176  RH  041%=      5-min Rain = 0
KSW1 111852Z 19011KT 33/18 A3011 RMK A01 T03320179  RH  040%=      5-min Rain = 0
KSW1 111853Z 20012KT 34/18 A3011 RMK A01 T03360178  RH  039%=      5-min Rain = 0
KSW1 111854Z 19011KT 33/17 A3011 RMK A01 T03330174  RH  039%=      5-min Rain = 0
KSW1 111855Z 19013KT 33/18 A3011 RMK A01 T03290175  RH  040%=      5-min Rain = 0
KSW1 111856Z 18011KT 33/18 A3011 RMK A01 T03300178  RH  040%=      5-min Rain = 0
KSW1 111857Z 18010KT 33/18 A3011 RMK A01 T03320177  RH  040%=      5-min Rain = 0
KSW1 111858Z 17010KT 33/18 A3011 RMK A01 T03310177  RH  040%=      5-min Rain = 0
KSW1 111859Z 17010KT 33/17 A3011 RMK A01 T03270171  RH  039%=      5-min Rain = 0
KSW1 111900Z 16015KT 32/17 A3011 RMK A01 T03240168  RH  039%=      5-min Rain = 0
KSW1 111901Z 16016KT 32/16 A3011 RMK A01 T03230164  RH  039%=      5-min Rain = 0
KSW1 111902Z 16011KT 33/16 A3011 RMK A01 T03260164  RH  038%=      5-min Rain = 0
KSW1 111903Z 15009G16KT 33/16 A3011 RMK A01 T03280164  RH  037%=      5-min Rain = 0
KSW1 111904Z 17015KT 33/17 A3011 RMK A01 T03310169  RH  038%=      5-min Rain = 0
KSW1 111905Z 18017KT 34/17 A3011 RMK A01 T03350171  RH  038%=      5-min Rain = 0
KSW1 111906Z 19010G15KT 33/17 A3011 RMK A01 T03330171  RH  038%=      5-min Rain = 0
KSW1 111907Z 19010G15KT 33/17 A3011 RMK A01 T03300173  RH  039%=      5-min Rain = 0
KSW1 111908Z 17008KT 33/17 A3011 RMK A01 T03300174  RH  040%=      5-min Rain = 0
KSW1 111909Z 17009G15KT 33/17 A3011 RMK A01 T03280174  RH  040%=      5-min Rain = 0
KSW1 111910Z 16013KT 33/17 A301 RMK A01 T03310173  RH  039%=      5-min Rain = 0
KSW1 111911Z 16012KT 34/17 A301 RMK A01 T03350173  RH  038%=      5-min Rain = 0
KSW1 111912Z 18012KT 33/17 A301 RMK A01 T03340172  RH  038%=      5-min Rain = 0
KSW1 111913Z 18010KT 33/17 A301 RMK A01 T03300169  RH  038%=      5-min Rain = 0
KSW1 111914Z 19013G20KT 33/17 A301 RMK A01 T03300170  RH  039%=      5-min Rain = 0
KSW1 111915Z 19014KT 33/17 A301 RMK A01 T03310172  RH  039%=      5-min Rain = 0
KSW1 111916Z 19013G19KT 33/17 A301 RMK A01 T03280169  RH  039%=      5-min Rain = 0
KSW1 111917Z 19012KT 32/17 A301 RMK A01 T03240170  RH  040%=      5-min Rain = 0
KSW1 111918Z 19011KT 32/17 A301 RMK A01 T03240168  RH  039%=      5-min Rain = 0
KSW1 111919Z 19011KT 33/17 A301 RMK A01 T03260166  RH  038%=      5-min Rain = 0
KSW1 111920Z 18008KT 33/17 A301 RMK A01 T03280170  RH  039%=      5-min Rain = 0
KSW1 111921Z 14008KT 33/17 A301 RMK A01 T03320174  RH  039%=      5-min Rain = 0
KSW1 111922Z 16007KT 34/18 A301 RMK A01 T03380177  RH  038%=      5-min Rain = 0
KSW1 111923Z 15012KT 34/18 A301 RMK A01 T03400175  RH  037%=      5-min Rain = 0
KSW1 111924Z 16011G18KT 34/18 A301 RMK A01 T03420176  RH  037%=      5-min Rain = 0
KSW1 111925Z 15010KT 34/18 A301 RMK A01 T03440176  RH  037%=      5-min Rain = 0
KSW1 111926Z 14008KT 34/17 A301 RMK A01 T03410170  RH  036%=      5-min Rain = 0
KSW1 111927Z 15012G17KT 33/17 A301 RMK A01 T03340168  RH  037%=      5-min Rain = 0
KSW1 111928Z 14015KT 33/16 A301 RMK A01 T03300163  RH  037%=      5-min Rain = 0
KSW1 111929Z 14009KT 33/16 A301 RMK A01 T03280164  RH  038%=      5-min Rain = 0
KSW1 111930Z 15010KT 33/16 A301 RMK A01 T03280164  RH  038%=      5-min Rain = 0
KSW1 111931Z 15012KT 33/17 A301 RMK A01 T03280167  RH  038%=      5-min Rain = 0
KSW1 111932Z 15010KT 33/17 A3009 RMK A01 T03300170  RH  038%=      5-min Rain = 0
KSW1 111933Z 17016G21KT 34/17 A3009 RMK A01 T03350172  RH  038%=      5-min Rain = 0
KSW1 111934Z 17016KT 34/17 A3009 RMK A01 T03360169  RH  037%=      5-min Rain = 0
KSW1 111935Z 16014G19KT 34/17 A3009 RMK A01 T03350172  RH  038%=      5-min Rain = 0
KSW1 111936Z 15014KT 34/17 A3009 RMK A01 T03370170  RH  037%=      5-min Rain = 0
KSW1 111937Z 15013KT 34/17 A3009 RMK A01 T03360170  RH  037%=      5-min Rain = 0
KSW1 111938Z 16012KT 34/17 A3009 RMK A01 T03360170  RH  037%=      5-min Rain = 0
KSW1 111939Z 15010KT 34/17 A3009 RMK A01 T03380173  RH  037%=      5-min Rain = 0
KSW1 111940Z 14014KT 34/17 A3009 RMK A01 T03410169  RH  036%=      5-min Rain = 0
KSW1 111941Z 14012KT 34/16 A3009 RMK A01 T03360163  RH  036%=      5-min Rain = 0
KSW1 111942Z 14012KT 33/16 A3009 RMK A01 T03310162  RH  036%=      5-min Rain = 0
KSW1 111943Z 14009KT 33/16 A3009 RMK A01 T03280161  RH  037%=      5-min Rain = 0
KSW1 111944Z 15008KT 33/16 A3009 RMK A01 T03270162  RH  037%=      5-min Rain = 0
KSW1 111945Z 16013G18KT 33/17 A3009 RMK A01 T03280165  RH  038%=      5-min Rain = 0
KSW1 111946Z 14012KT 33/17 A3009 RMK A01 T03300166  RH  038%=      5-min Rain = 0
KSW1 111947Z 17008KT 33/17 A3009 RMK A01 T03310165  RH  037%=      5-min Rain = 0
KSW1 111948Z 16008KT 33/17 A3009 RMK A01 T03320167  RH  037%=      5-min Rain = 0
KSW1 111949Z 14013G20KT 34/17 A3009 RMK A01 T03350168  RH  037%=      5-min Rain = 0
KSW1 111950Z 15014G19KT 34/17 A3009 RMK A01 T03380165  RH  036%=      5-min Rain = 0
KSW1 111951Z 16014G19KT 34/17 A3009 RMK A01 T03400168  RH  036%=      5-min Rain = 0
KSW1 111952Z 16014KT 34/17 A3009 RMK A01 T03430168  RH  035%=      5-min Rain = 0
KSW1 111953Z 16014KT 34/17 A3009 RMK A01 T03420167  RH  035%=      5-min Rain = 0
KSW1 111954Z 14013KT 34/17 A3008 RMK A01 T03390166  RH  036%=      5-min Rain = 0
KSW1 111955Z 15012KT 34/16 A3008 RMK A01 T03360163  RH  036%=      5-min Rain = 0
KSW1 111956Z 17012KT 34/17 A3008 RMK A01 T03360166  RH  036%=      5-min Rain = 0
KSW1 111957Z 17014KT 34/16 A3008 RMK A01 T03390164  RH  035%=      5-min Rain = 0
KSW1 111958Z 18015KT 34/16 A3008 RMK A01 T03400164  RH  035%=      5-min Rain = 0
KSW1 111959Z 18011KT 34/16 A3008 RMK A01 T03410163  RH  035%=      5-min Rain = 0
KSW1 112000Z 15012KT 34/16 A3008 RMK A01 T03430162  RH  034%=      5-min Rain = 0
KSW1 112001Z 16010KT 34/16 A3008 RMK A01 T03410162  RH  034%=      5-min Rain = 0
KSW1 112002Z 17011KT 34/16 A3008 RMK A01 T03380163  RH  035%=      5-min Rain = 0
KSW1 112003Z 16011KT 34/16 A3008 RMK A01 T03360161  RH  035%=      5-min Rain = 0
KSW1 112004Z 17011KT 33/16 A3008 RMK A01 T03330159  RH  035%=      5-min Rain = 0
KSW1 112005Z 18009KT 33/16 A3008 RMK A01 T03310157  RH  035%=      5-min Rain = 0
KSW1 112006Z 18010G15KT 33/16 A3008 RMK A01 T03310160  RH  036%=      5-min Rain = 0
KSW1 112007Z 18012KT 33/16 A3008 RMK A01 T03340160  RH  035%=      5-min Rain = 0
KSW1 112008Z 18014KT 34/16 A3008 RMK A01 T03370162  RH  035%=      5-min Rain = 0
KSW1 112009Z 17011KT 34/16 A3008 RMK A01 T03400159  RH  034%=      5-min Rain = 0
KSW1 112010Z 19010G15KT 34/16 A3008 RMK A01 T03390159  RH  034%=      5-min Rain = 0
KSW1 112011Z 14013KT 34/16 A3008 RMK A01 T03390160  RH  034%=      5-min Rain = 0
KSW1 112012Z 14010G15KT 34/16 A3008 RMK A01 T03410157  RH  033%=      5-min Rain = 0
KSW1 112013Z 14010KT 34/16 A3007 RMK A01 T03430160  RH  034%=      5-min Rain = 0
KSW1 112014Z 18015G21KT 35/16 A3007 RMK A01 T03450161  RH  033%=      5-min Rain = 0
KSW1 112015Z 17016KT 35/16 A3007 RMK A01 T03450164  RH  034%=      5-min Rain = 0
KSW1 112016Z 18013KT 34/16 A3007 RMK A01 T03420161  RH  034%=      5-min Rain = 0
KSW1 112017Z 15013KT 34/16 A3007 RMK A01 T03390162  RH  035%=      5-min Rain = 0
KSW1 112018Z 16016KT 34/17 A3007 RMK A01 T03400165  RH  035%=      5-min Rain = 0
KSW1 112019Z 17012KT 34/17 A3007 RMK A01 T03420165  RH  035%=      5-min Rain = 0
KSW1 112020Z 18010KT 34/17 A3007 RMK A01 T03420165  RH  035%=      5-min Rain = 0
KSW1 112021Z 18008G13KT 34/17 A3007 RMK A01 T03410165  RH  035%=      5-min Rain = 0
KSW1 112022Z 16010G15KT 34/17 A3007 RMK A01 T03420167  RH  035%=      5-min Rain = 0
KSW1 112023Z 16016KT 34/17 A3007 RMK A01 T03430166  RH  035%=      5-min Rain = 0
KSW1 112024Z 17013KT 34/16 A3007 RMK A01 T03410163  RH  035%=      5-min Rain = 0
KSW1 112025Z 17009KT 34/16 A3007 RMK A01 T03390162  RH  035%=      5-min Rain = 0
KSW1 112026Z 17009KT 34/16 A3007 RMK A01 T03370163  RH  035%=      5-min Rain = 0
KSW1 112027Z 15009KT 34/16 A3007 RMK A01 T03360164  RH  036%=      5-min Rain = 0
KSW1 112028Z 13012KT 34/17 A3007 RMK A01 T03380166  RH  036%=      5-min Rain = 0
KSW1 112029Z 14013KT 34/17 A3007 RMK A01 T03420168  RH  036%=      5-min Rain = 0
KSW1 112030Z 15016KT 35/16 A3007 RMK A01 T03450164  RH  034%=      5-min Rain = 0
KSW1 112031Z 16015KT 34/16 A3007 RMK A01 T03440163  RH  034%=      5-min Rain = 0
KSW1 112032Z 18014KT 34/17 A3007 RMK A01 T03440165  RH  034%=      5-min Rain = 0
KSW1 112033Z 17012KT 34/16 A3007 RMK A01 T03420162  RH  034%=      5-min Rain = 0
KSW1 112034Z 17011KT 34/16 A3007 RMK A01 T03400162  RH  035%=      5-min Rain = 0
KSW1 112035Z 15015KT 34/16 A3006 RMK A01 T03410163  RH  035%=      5-min Rain = 0
KSW1 112036Z 19011KT 34/16 A3007 RMK A01 T03420163  RH  034%=      5-min Rain = 0
KSW1 112037Z 21009G14KT 34/16 A3007 RMK A01 T03400161  RH  034%=      5-min Rain = 0
KSW1 112038Z 21006KT 34/16 A3006 RMK A01 T03370160  RH  035%=      5-min Rain = 0
KSW1 112039Z 19008KT 34/16 A3006 RMK A01 T03370163  RH  035%=      5-min Rain = 0
KSW1 112040Z 15010KT 34/17 A3006 RMK A01 T03390165  RH  035%=      5-min Rain = 0
KSW1 112041Z 15013G19KT 34/17 A3006 RMK A01 T03440166  RH  035%=      5-min Rain = 0
KSW1 112042Z 16012KT 35/17 A3006 RMK A01 T03460165  RH  034%=      5-min Rain = 0
KSW1 112043Z 16014KT 35/17 A3006 RMK A01 T03470165  RH  034%=      5-min Rain = 0
KSW1 112044Z 15012KT 35/17 A3006 RMK A01 T03470168  RH  035%=      5-min Rain = 0
KSW1 112045Z 13013KT 35/17 A3006 RMK A01 T03510167  RH  033%=      5-min Rain = 0
KSW1 112046Z 14015KT 35/16 A3006 RMK A01 T03520164  RH  033%=      5-min Rain = 0
KSW1 112047Z 15013KT 35/16 A3006 RMK A01 T03490162  RH  033%=      5-min Rain = 0
KSW1 112048Z 15012G17KT 35/16 A3006 RMK A01 T03460162  RH  033%=      5-min Rain = 0
KSW1 112049Z 18011KT 35/16 A3006 RMK A01 T03460159  RH  033%=      5-min Rain = 0
KSW1 112050Z 20012KT 35/15 A3006 RMK A01 T03450153  RH  032%=      5-min Rain = 0
KSW1 112051Z 20009KT 34/15 A3006 RMK A01 T03440153  RH  032%=      5-min Rain = 0
KSW1 112052Z 18009KT 35/15 A3006 RMK A01 T03450154  RH  032%=      5-min Rain = 0
KSW1 112053Z 17010KT 35/16 A3006 RMK A01 T03470161  RH  033%=      5-min Rain = 0
KSW1 112054Z 17011KT 35/16 A3006 RMK A01 T03470162  RH  033%=      5-min Rain = 0
KSW1 112055Z 18016KT 35/16 A3006 RMK A01 T03450159  RH  033%=      5-min Rain = 0
KSW1 112056Z 17014KT 34/16 A3005 RMK A01 T03410158  RH  034%=      5-min Rain = 0
KSW1 112057Z 17011KT 34/16 A3006 RMK A01 T03420157  RH  033%=      5-min Rain = 0
KSW1 112058Z 17010KT 34/16 A3006 RMK A01 T03440155  RH  032%=      5-min Rain = 0
KSW1 112059Z 16009KT 34/16 A3005 RMK A01 T03440155  RH  032%=      5-min Rain = 0
KSW1 112100Z 18008KT 35/15 A3005 RMK A01 T03450145  RH  030%=      5-min Rain = 0
KSW1 112101Z 17011KT 35/15 A3005 RMK A01 T03460145  RH  030%=      5-min Rain = 0
KSW1 112102Z 18008KT 35/14 A3005 RMK A01 T03460144  RH  030%=      5-min Rain = 0
KSW1 112103Z 17015KT 34/15 A3005 RMK A01 T03430152  RH  032%=      5-min Rain = 0
KSW1 112104Z 17016KT 34/16 A3005 RMK A01 T03430157  RH  033%=      5-min Rain = 0
KSW1 112105Z 17016KT 34/16 A3005 RMK A01 T03420157  RH  033%=      5-min Rain = 0
KSW1 112106Z 16015KT 34/16 A3005 RMK A01 T03390156  RH  033%=      5-min Rain = 0
KSW1 112107Z 15014KT 34/16 A3005 RMK A01 T03360156  RH  034%=      5-min Rain = 0
KSW1 112108Z 15010KT 33/16 A3005 RMK A01 T03340156  RH  034%=      5-min Rain = 0
KSW1 112109Z 15011KT 33/16 A3005 RMK A01 T03340157  RH  035%=      5-min Rain = 0
KSW1 112110Z 16010KT 33/16 A3005 RMK A01 T03340156  RH  034%=      5-min Rain = 0
KSW1 112111Z 15008KT 33/16 A3005 RMK A01 T03340158  RH  035%=      5-min Rain = 0
KSW1 112112Z 14010KT 34/16 A3005 RMK A01 T03360159  RH  035%=      5-min Rain = 0
KSW1 112113Z 13010KT 34/16 A3005 RMK A01 T03410158  RH  034%=      5-min Rain = 0
KSW1 112114Z 15010KT 34/16 A3005 RMK A01 T03400156  RH  033%=      5-min Rain = 0
KSW1 112115Z 16011KT 34/16 A3005 RMK A01 T03390156  RH  033%=      5-min Rain = 0
KSW1 112116Z 16011KT 34/16 A3005 RMK A01 T03380155  RH  034%=      5-min Rain = 0
KSW1 112117Z 16010KT 34/16 A3005 RMK A01 T03370155  RH  034%=      5-min Rain = 0
KSW1 112118Z 17010KT 34/16 A3005 RMK A01 T03370155  RH  034%=      5-min Rain = 0
KSW1 112119Z 17010KT 34/15 A3005 RMK A01 T03360154  RH  034%=      5-min Rain = 0
KSW1 112120Z 15009KT 34/16 A3005 RMK A01 T03350155  RH  034%=      5-min Rain = 0
KSW1 112121Z 16010KT 34/16 A3005 RMK A01 T03350155  RH  034%=      5-min Rain = 0
KSW1 112122Z 16011KT 33/15 A3005 RMK A01 T03340154  RH  034%=      5-min Rain = 0
KSW1 112123Z 16009KT 33/15 A3005 RMK A01 T03330154  RH  034%=      5-min Rain = 0
KSW1 112124Z 15010KT 33/15 A3005 RMK A01 T03330154  RH  034%=      5-min Rain = 0
KSW1 112125Z 16014KT 33/15 A3004 RMK A01 T03330154  RH  034%=      5-min Rain = 0
KSW1 112126Z 17015KT 34/16 A3004 RMK A01 T03350155  RH  034%=      5-min Rain = 0
KSW1 112127Z 17014KT 34/16 A3004 RMK A01 T03370155  RH  034%=      5-min Rain = 0
KSW1 112128Z 18011G16KT 34/15 A3004 RMK A01 T03410154  RH  033%=      5-min Rain = 0
KSW1 112129Z 18012KT 34/16 A3004 RMK A01 T03440155  RH  032%=      5-min Rain = 0
KSW1 112130Z 17011KT 34/15 A3004 RMK A01 T03440153  RH  032%=      5-min Rain = 0
KSW1 112131Z 18009KT 35/15 A3004 RMK A01 T03460152  RH  031%=      5-min Rain = 0
KSW1 112132Z 16011KT 35/15 A3004 RMK A01 T03460151  RH  031%=      5-min Rain = 0
KSW1 112133Z 17010KT 35/15 A3004 RMK A01 T03460153  RH  032%=      5-min Rain = 0
KSW1 112134Z 17011KT 35/16 A3004 RMK A01 T03500156  RH  032%=      5-min Rain = 0
KSW1 112135Z 18012KT 35/15 A3004 RMK A01 T03490153  RH  031%=      5-min Rain = 0
KSW1 112136Z 17010KT 35/15 A3004 RMK A01 T03480154  RH  032%=      5-min Rain = 0
KSW1 112137Z 18007KT 35/15 A3004 RMK A01 T03460152  RH  031%=      5-min Rain = 0
KSW1 112138Z 19008KT 34/15 A3004 RMK A01 T03430152  RH  032%=      5-min Rain = 0
KSW1 112139Z 19007KT 34/15 A3004 RMK A01 T03420151  RH  032%=      5-min Rain = 0
KSW1 112140Z 16010KT 34/15 A3004 RMK A01 T03410153  RH  032%=      5-min Rain = 0
KSW1 112141Z 14010KT 34/16 A3004 RMK A01 T03420156  RH  033%=      5-min Rain = 0
KSW1 112142Z 12013KT 35/16 A3004 RMK A01 T03450157  RH  033%=      5-min Rain = 0
KSW1 112143Z 13011KT 35/16 A3004 RMK A01 T03450155  RH  032%=      5-min Rain = 0
KSW1 112144Z 16009KT 35/16 A3004 RMK A01 T03460157  RH  032%=      5-min Rain = 0
KSW1 112145Z 15010G15KT 35/16 A3004 RMK A01 T03480158  RH  032%=      5-min Rain = 0
KSW1 112146Z 14011KT 35/16 A3004 RMK A01 T03510160  RH  032%=      5-min Rain = 0
KSW1 112147Z 14012KT 35/16 A3004 RMK A01 T03530157  RH  031%=      5-min Rain = 0
KSW1 112148Z 15011KT 35/15 A3003 RMK A01 T03510154  RH  031%=      5-min Rain = 0
KSW1 112149Z 14010KT 35/16 A3003 RMK A01 T03480155  RH  031%=      5-min Rain = 0
KSW1 112150Z 14008KT 35/16 A3003 RMK A01 T03480158  RH  032%=      5-min Rain = 0
KSW1 112151Z 14009KT 35/16 A3003 RMK A01 T03510158  RH  032%=      5-min Rain = 0
KSW1 112152Z 14012G18KT 35/15 A3003 RMK A01 T03530153  RH  030%=      5-min Rain = 0
KSW1 112153Z 13013G19KT 35/15 A3003 RMK A01 T03520152  RH  030%=      5-min Rain = 0
KSW1 112154Z 13013KT 35/15 A3003 RMK A01 T03500151  RH  030%=      5-min Rain = 0
KSW1 112155Z 14010KT 35/15 A3003 RMK A01 T03480152  RH  031%=      5-min Rain = 0
KSW1 112156Z 13012KT 35/15 A3003 RMK A01 T03460150  RH  031%=      5-min Rain = 0
KSW1 112157Z 13009KT 34/15 A3003 RMK A01 T03420148  RH  031%=      5-min Rain = 0
KSW1 112158Z 14008KT 34/15 A3003 RMK A01 T03410149  RH  032%=      5-min Rain = 0
KSW1 112159Z 17008KT 34/15 A3003 RMK A01 T03440150  RH  031%=      5-min Rain = 0
KSW1 112200Z 19010G15KT 35/15 A3003 RMK A01 T03470152  RH  031%=      5-min Rain = 0
KSW1 112201Z 19012KT 35/15 A3003 RMK A01 T03490149  RH  030%=      5-min Rain = 0
KSW1 112202Z 19012KT 35/15 A3003 RMK A01 T03490148  RH  030%=      5-min Rain = 0
KSW1 112203Z 20009KT 35/15 A3003 RMK A01 T03480147  RH  030%=      5-min Rain = 0
KSW1 112204Z 19007KT 35/15 A3003 RMK A01 T03460147  RH  030%=      5-min Rain = 0
KSW1 112205Z 18009KT 35/15 A3003 RMK A01 T03450151  RH  031%=      5-min Rain = 0
KSW1 112206Z 18013G19KT 35/15 A3002 RMK A01 T03480152  RH  031%=      5-min Rain = 0
KSW1 112207Z 17016KT 35/15 A3002 RMK A01 T03530152  RH  030%=      5-min Rain = 0
KSW1 112208Z 17015G20KT 35/15 A3002 RMK A01 T03520148  RH  030%=      5-min Rain = 0
KSW1 112209Z 16015KT 35/15 A3002 RMK A01 T03500149  RH  030%=      5-min Rain = 0
KSW1 112210Z 16012KT 35/15 A3002 RMK A01 T03490150  RH  030%=      5-min Rain = 0
KSW1 112211Z 14012KT 35/15 A3002 RMK A01 T03490150  RH  030%=      5-min Rain = 0
KSW1 112212Z 16012KT 35/15 A3002 RMK A01 T03460150  RH  031%=      5-min Rain = 0
KSW1 112213Z 18012KT 35/15 A3002 RMK A01 T03450151  RH  031%=      5-min Rain = 0
KSW1 112214Z 17012KT 34/15 A3002 RMK A01 T03440152  RH  032%=      5-min Rain = 0
KSW1 112215Z 17009KT 34/15 A3002 RMK A01 T03420151  RH  032%=      5-min Rain = 0
KSW1 112216Z 17008KT 34/15 A3002 RMK A01 T03410152  RH  032%=      5-min Rain = 0
KSW1 112217Z 15008KT 34/15 A3002 RMK A01 T03400150  RH  032%=      5-min Rain = 0
KSW1 112218Z 15010KT 34/15 A3002 RMK A01 T03390148  RH  032%=      5-min Rain = 0
KSW1 112219Z 15013KT 34/15 A3002 RMK A01 T03390146  RH  032%=      5-min Rain = 0
KSW1 112220Z 16012KT 34/15 A3002 RMK A01 T03370146  RH  032%=      5-min Rain = 0
KSW1 112221Z 16010KT 34/15 A3002 RMK A01 T03360147  RH  032%=      5-min Rain = 0
KSW1 112222Z 15008KT 34/15 A3002 RMK A01 T03360149  RH  033%=      5-min Rain = 0
KSW1 112223Z 14008KT 34/15 A3002 RMK A01 T03380149  RH  032%=      5-min Rain = 0
KSW1 112224Z 14010KT 34/15 A3002 RMK A01 T03390149  RH  032%=      5-min Rain = 0
KSW1 112225Z 16011KT 34/15 A3002 RMK A01 T03400148  RH  032%=      5-min Rain = 0
KSW1 112226Z 16012KT 34/15 A3002 RMK A01 T03390148  RH  032%=      5-min Rain = 0
KSW1 112227Z 17011KT 34/15 A3002 RMK A01 T03380147  RH  032%=      5-min Rain = 0
KSW1 112228Z 17012KT 34/15 A3002 RMK A01 T03400148  RH  032%=      5-min Rain = 0
KSW1 112229Z 18011KT 34/15 A3002 RMK A01 T03420149  RH  031%=      5-min Rain = 0
KSW1 112230Z 18009KT 34/15 A3002 RMK A01 T03440151  RH  031%=      5-min Rain = 0
KSW1 112231Z 19009KT 35/15 A3002 RMK A01 T03470150  RH  031%=      5-min Rain = 0
KSW1 112232Z 19013KT 35/15 A3002 RMK A01 T03470151  RH  031%=      5-min Rain = 0
KSW1 112233Z 18010KT 35/15 A3002 RMK A01 T03450149  RH  031%=      5-min Rain = 0
KSW1 112234Z 17012KT 34/15 A3002 RMK A01 T03420149  RH  031%=      5-min Rain = 0
KSW1 112235Z 17012KT 34/15 A3002 RMK A01 T03400149  RH  032%=      5-min Rain = 0
KSW1 112236Z 17012KT 34/15 A3002 RMK A01 T03390150  RH  032%=      5-min Rain = 0
KSW1 112237Z 16012KT 34/15 A3002 RMK A01 T03380147  RH  032%=      5-min Rain = 0
KSW1 112238Z 17011KT 34/15 A3002 RMK A01 T03380146  RH  032%=      5-min Rain = 0
KSW1 112239Z 17012KT 34/15 A3002 RMK A01 T03370146  RH  032%=      5-min Rain = 0
KSW1 112240Z 17009KT 34/15 A3002 RMK A01 T03360147  RH  032%=      5-min Rain = 0
KSW1 112241Z 18008KT 34/15 A3002 RMK A01 T03360145  RH  032%=      5-min Rain = 0
KSW1 112242Z 19009KT 34/15 A3002 RMK A01 T03350147  RH  032%=      5-min Rain = 0
KSW1 112243Z 17010KT 34/15 A3002 RMK A01 T03360149  RH  033%=      5-min Rain = 0
KSW1 112244Z 17011KT 34/15 A3001 RMK A01 T03380148  RH  032%=      5-min Rain = 0
KSW1 112245Z 17010KT 34/15 A3001 RMK A01 T03410147  RH  031%=      5-min Rain = 0
KSW1 112246Z 15010KT 34/15 A3001 RMK A01 T03420146  RH  031%=      5-min Rain = 0
KSW1 112247Z 15011KT 34/15 A3001 RMK A01 T03430145  RH  030%=      5-min Rain = 0
KSW1 112248Z 16010KT 34/15 A3001 RMK A01 T03440147  RH  031%=      5-min Rain = 0
KSW1 112249Z 17009KT 35/15 A3001 RMK A01 T03470147  RH  030%=      5-min Rain = 0
KSW1 112250Z 19009KT 35/15 A3001 RMK A01 T03470148  RH  030%=      5-min Rain = 0
KSW1 112251Z 19010KT 35/15 A3001 RMK A01 T03470147  RH  030%=      5-min Rain = 0
KSW1 112252Z 19008KT 35/15 A3001 RMK A01 T03470148  RH  030%=      5-min Rain = 0
KSW1 112253Z 18007KT 35/15 A3001 RMK A01 T03480148  RH  030%=      5-min Rain = 0
KSW1 112254Z 17010G15KT 35/15 A3001 RMK A01 T03490149  RH  030%=      5-min Rain = 0
KSW1 112255Z 16012KT 35/15 A3001 RMK A01 T03500150  RH  030%=      5-min Rain = 0
KSW1 112256Z 17011KT 35/15 A3001 RMK A01 T03510151  RH  030%=      5-min Rain = 0
KSW1 112257Z 16014KT 35/15 A3001 RMK A01 T03490150  RH  030%=      5-min Rain = 0
KSW1 112258Z 16011KT 35/15 A3001 RMK A01 T03480150  RH  031%=      5-min Rain = 0
KSW1 112259Z 14010KT 35/15 A3001 RMK A01 T03490152  RH  031%=      5-min Rain = 0
KSW1 112300Z 14012KT 35/15 A3001 RMK A01 T03500151  RH  030%=      5-min Rain = 0
KSW1 112301Z 15013KT 35/15 A3001 RMK A01 T03490150  RH  030%=      5-min Rain = 0
KSW1 112302Z 13011KT 35/15 A3001 RMK A01 T03490152  RH  031%=      5-min Rain = 0
KSW1 112303Z 13009KT 35/15 A3001 RMK A01 T03500153  RH  031%=      5-min Rain = 0
KSW1 112304Z 16010KT 35/16 A3001 RMK A01 T03530156  RH  031%=      5-min Rain = 0
KSW1 112305Z 16009KT 35/16 A3001 RMK A01 T03540155  RH  031%=      5-min Rain = 0
KSW1 112306Z 15007KT 35/15 A3001 RMK A01 T03540154  RH  030%=      5-min Rain = 0
KSW1 112307Z 15009KT 35/15 A3001 RMK A01 T03520153  RH  031%=      5-min Rain = 0
KSW1 112308Z 14010KT 35/14 A3001 RMK A01 T03530143  RH  029%=      5-min Rain = 0
KSW1 112309Z 16007KT 35/14 A3001 RMK A01 T03500143  RH  029%=      5-min Rain = 0
KSW1 112310Z 15006KT 35/14 A3001 RMK A01 T03500144  RH  029%=      5-min Rain = 0
KSW1 112311Z 17004KT 35/15 A3001 RMK A01 T03510145  RH  029%=      5-min Rain = 0
KSW1 112312Z 16007KT 35/15 A3001 RMK A01 T03520146  RH  029%=      5-min Rain = 0
KSW1 112313Z 16007G12KT 35/15 A3001 RMK A01 T03520148  RH  030%=      5-min Rain = 0
KSW1 112314Z 17012KT 35/15 A3001 RMK A01 T03530148  RH  029%=      5-min Rain = 0
KSW1 112315Z 16009KT 35/15 A3001 RMK A01 T03540150  RH  030%=      5-min Rain = 0
KSW1 112316Z 14011KT 36/15 A3001 RMK A01 T03560151  RH  030%=      5-min Rain = 0
KSW1 112317Z 13010KT 35/15 A3001 RMK A01 T03540148  RH  029%=      5-min Rain = 0
KSW1 112318Z 14006KT 35/15 A3001 RMK A01 T03500146  RH  030%=      5-min Rain = 0
KSW1 112319Z 13005KT 35/15 A3001 RMK A01 T03470147  RH  030%=      5-min Rain = 0
KSW1 112320Z 13006G11KT 35/15 A30 RMK A01 T03470148  RH  030%=      5-min Rain = 0
KSW1 112321Z 18009KT 35/15 A30 RMK A01 T03480147  RH  030%=      5-min Rain = 0
KSW1 112322Z 15010KT 35/15 A30 RMK A01 T03490147  RH  030%=      5-min Rain = 0
KSW1 112323Z 13014KT 35/15 A30 RMK A01 T03490148  RH  030%=      5-min Rain = 0
KSW1 112324Z 14012G17KT 35/15 A3001 RMK A01 T03480148  RH  030%=      5-min Rain = 0
KSW1 112325Z 13014KT 35/15 A30 RMK A01 T03470147  RH  030%=      5-min Rain = 0
KSW1 112326Z 13011KT 35/15 A30 RMK A01 T03460148  RH  031%=      5-min Rain = 0
KSW1 112327Z 14015KT 35/15 A30 RMK A01 T03470148  RH  030%=      5-min Rain = 0
KSW1 112328Z 13011KT 35/15 A30 RMK A01 T03470149  RH  031%=      5-min Rain = 0
KSW1 112329Z 13013KT 35/15 A3001 RMK A01 T03470149  RH  031%=      5-min Rain = 0
KSW1 112330Z 13016KT 35/15 A3001 RMK A01 T03450148  RH  031%=      5-min Rain = 0
KSW1 112331Z 15011KT 34/15 A3001 RMK A01 T03430148  RH  031%=      5-min Rain = 0
KSW1 112332Z 14006KT 34/15 A30 RMK A01 T03430148  RH  031%=      5-min Rain = 0
KSW1 112333Z 14012KT 34/15 A30 RMK A01 T03420149  RH  032%=      5-min Rain = 0
KSW1 112334Z 12008KT 34/15 A30 RMK A01 T03410148  RH  031%=      5-min Rain = 0
KSW1 112335Z 12009KT 34/15 A30 RMK A01 T03400148  RH  032%=      5-min Rain = 0
KSW1 112336Z 14007KT 34/15 A30 RMK A01 T03400150  RH  032%=      5-min Rain = 0
KSW1 112337Z 14009KT 34/15 A30 RMK A01 T03430151  RH  032%=      5-min Rain = 0
KSW1 112338Z 12012KT 35/15 A30 RMK A01 T03450152  RH  032%=      5-min Rain = 0
KSW1 112339Z 13012KT 35/15 A30 RMK A01 T03460151  RH  031%=      5-min Rain = 0
KSW1 112340Z 13011G20KT 35/15 A30 RMK A01 T03460149  RH  031%=      5-min Rain = 0
KSW1 112341Z 13016KT 34/15 A30 RMK A01 T03440149  RH  031%=      5-min Rain = 0
KSW1 112342Z 12011KT 34/15 A30 RMK A01 T03440151  RH  031%=      5-min Rain = 0
KSW1 112343Z 12010KT 34/15 A30 RMK A01 T03440151  RH  031%=      5-min Rain = 0
KSW1 112344Z 13009KT 35/15 A30 RMK A01 T03450151  RH  031%=      5-min Rain = 0
KSW1 112345Z 14009KT 35/15 A30 RMK A01 T03460152  RH  031%=      5-min Rain = 0
KSW1 112346Z 13009KT 35/15 A30 RMK A01 T03460152  RH  031%=      5-min Rain = 0
KSW1 112347Z 14008KT 35/15 A30 RMK A01 T03460150  RH  031%=      5-min Rain = 0
KSW1 112348Z 13011KT 35/15 A30 RMK A01 T03450153  RH  032%=      5-min Rain = 0
KSW1 112349Z 13013KT 35/15 A30 RMK A01 T03460152  RH  031%=      5-min Rain = 0
KSW1 112350Z 14012KT 35/15 A30 RMK A01 T03460151  RH  031%=      5-min Rain = 0
KSW1 112351Z 14012KT 34/15 A30 RMK A01 T03440150  RH  031%=      5-min Rain = 0
KSW1 112352Z 13009KT 34/15 A30 RMK A01 T03430150  RH  031%=      5-min Rain = 0
KSW1 112353Z 12008KT 34/15 A30 RMK A01 T03430152  RH  032%=      5-min Rain = 0
KSW1 112354Z 12007KT 34/15 A30 RMK A01 T03440151  RH  031%=      5-min Rain = 0
KSW1 112355Z 13008KT 35/15 A30 RMK A01 T03460153  RH  032%=      5-min Rain = 0
KSW1 112356Z 14011KT 35/15 A30 RMK A01 T03470151  RH  031%=      5-min Rain = 0
KSW1 112357Z 13011KT 35/15 A30 RMK A01 T03460150  RH  031%=      5-min Rain = 0
KSW1 112358Z 14010KT 35/15 A30 RMK A01 T03460150  RH  031%=      5-min Rain = 0
KSW1 112359Z 15009G15KT 35/15 A30 RMK A01 T03460147  RH  030%=      5-min Rain = 0
KSW1 120000Z 18008KT 34/15 A30 RMK A01 T03440146  RH  030%=      5-min Rain = 0
KSW1 120001Z 17011KT 34/15 A30 RMK A01 T03430146  RH  031%=      5-min Rain = 0
KSW1 120002Z 18011KT 34/15 A30 RMK A01 T03430145  RH  030%=      5-min Rain = 0
KSW1 120003Z 17013KT 34/15 A30 RMK A01 T03430146  RH  031%=      5-min Rain = 0
KSW1 120004Z 17014KT 34/15 A30 RMK A01 T03430147  RH  031%=      5-min Rain = 0
KSW1 120005Z 17015KT 34/15 A30 RMK A01 T03430146  RH  031%=      5-min Rain = 0
KSW1 120006Z 17011KT 34/14 A30 RMK A01 T03420144  RH  031%=      5-min Rain = 0
KSW1 120007Z 16008KT 34/15 A30 RMK A01 T03410145  RH  031%=      5-min Rain = 0
KSW1 120008Z 17009KT 34/15 A30 RMK A01 T03410147  RH  031%=      5-min Rain = 0
KSW1 120009Z 16008KT 34/15 A30 RMK A01 T03410147  RH  031%=      5-min Rain = 0
KSW1 120010Z 17010KT 34/15 A30 RMK A01 T03410147  RH  031%=      5-min Rain = 0
KSW1 120011Z 17009KT 34/15 A30 RMK A01 T03410146  RH  031%=      5-min Rain = 0
KSW1 120012Z 18008KT 34/15 A30 RMK A01 T03410147  RH  031%=      5-min Rain = 0
KSW1 120013Z 17007KT 34/15 A30 RMK A01 T03410148  RH  031%=      5-min Rain = 0
KSW1 120014Z 15006KT 34/15 A30 RMK A01 T03420148  RH  031%=      5-min Rain = 0
KSW1 120015Z 15009KT 34/15 A30 RMK A01 T03440149  RH  031%=      5-min Rain = 0
KSW1 120016Z 15011KT 34/15 A3001 RMK A01 T03440148  RH  031%=      5-min Rain = 0
KSW1 120017Z 15011KT 34/15 A3001 RMK A01 T03440147  RH  031%=      5-min Rain = 0
KSW1 120018Z 15010KT 34/15 A3001 RMK A01 T03410146  RH  031%=      5-min Rain = 0
KSW1 120019Z 15009KT 34/15 A3001 RMK A01 T03380145  RH  031%=      5-min Rain = 0
KSW1 120020Z 15008KT 34/15 A3001 RMK A01 T03360146  RH  032%=      5-min Rain = 0
KSW1 120021Z 15009KT 34/15 A3001 RMK A01 T03360146  RH  032%=      5-min Rain = 0
KSW1 120022Z 15008KT 34/15 A3001 RMK A01 T03350146  RH  032%=      5-min Rain = 0
KSW1 120023Z 14007KT 34/15 A3001 RMK A01 T03350146  RH  032%=      5-min Rain = 0
KSW1 120024Z 15007KT 34/15 A3001 RMK A01 T03350147  RH  032%=      5-min Rain = 0
KSW1 120025Z 15006KT 34/15 A3001 RMK A01 T03350147  RH  032%=      5-min Rain = 0
KSW1 120026Z 16007KT 34/15 A3001 RMK A01 T03360148  RH  032%=      5-min Rain = 0
KSW1 120027Z 15007KT 34/15 A3001 RMK A01 T03350149  RH  033%=      5-min Rain = 0
KSW1 120028Z 16006G11KT 34/15 A3001 RMK A01 T03350151  RH  033%=      5-min Rain = 0
KSW1 120029Z 15009KT 33/15 A3001 RMK A01 T03330151  RH  033%=      5-min Rain = 0
KSW1 120030Z 15010KT 33/15 A3001 RMK A01 T03320151  RH  034%=      5-min Rain = 0
KSW1 120031Z 15011KT 33/15 A3001 RMK A01 T03300151  RH  034%=      5-min Rain = 0
KSW1 120032Z 14010KT 33/15 A3001 RMK A01 T03300150  RH  034%=      5-min Rain = 0
KSW1 120033Z 14008KT 33/15 A3001 RMK A01 T03290150  RH  034%=      5-min Rain = 0
KSW1 120034Z 14005KT 33/15 A3001 RMK A01 T03290151  RH  034%=      5-min Rain = 0
KSW1 120035Z 14006KT 33/15 A3001 RMK A01 T03280151  RH  034%=      5-min Rain = 0
KSW1 120036Z 15007KT 33/15 A3001 RMK A01 T03270151  RH  035%=      5-min Rain = 0
KSW1 120037Z 15007KT 33/15 A3001 RMK A01 T03270151  RH  035%=      5-min Rain = 0
KSW1 120038Z 15008KT 33/15 A3001 RMK A01 T03260151  RH  035%=      5-min Rain = 0
KSW1 120039Z 14008KT 33/15 A3001 RMK A01 T03250151  RH  035%=      5-min Rain = 0
KSW1 120040Z 15008KT 33/15 A3001 RMK A01 T03260152  RH  035%=      5-min Rain = 0
KSW1 120041Z 15008KT 33/15 A3001 RMK A01 T03250151  RH  035%=      5-min Rain = 0
KSW1 120042Z 14009KT 33/15 A3001 RMK A01 T03250148  RH  034%=      5-min Rain = 0
KSW1 120043Z 15010KT 33/15 A3001 RMK A01 T03260146  RH  034%=      5-min Rain = 0
KSW1 120044Z 15009KT 33/15 A3001 RMK A01 T03270145  RH  033%=      5-min Rain = 0
KSW1 120045Z 15008KT 33/15 A3001 RMK A01 T03270145  RH  033%=      5-min Rain = 0
KSW1 120046Z 15006KT 33/15 A3001 RMK A01 T03270147  RH  034%=      5-min Rain = 0
KSW1 120047Z 15006KT 33/15 A3001 RMK A01 T03260148  RH  034%=      5-min Rain = 0
KSW1 120048Z 15006KT 33/15 A3001 RMK A01 T03250147  RH  034%=      5-min Rain = 0
KSW1 120049Z 16008KT 33/15 A3001 RMK A01 T03250148  RH  034%=      5-min Rain = 0
KSW1 120050Z 16006KT 33/15 A3001 RMK A01 T03250147  RH  034%=      5-min Rain = 0
KSW1 120051Z 15006KT 33/15 A3001 RMK A01 T03250148  RH  035%=      5-min Rain = 0
KSW1 120052Z 15006KT 32/15 A3001 RMK A01 T03240148  RH  035%=      5-min Rain = 0
KSW1 120053Z 15007KT 32/15 A3001 RMK A01 T03240149  RH  035%=      5-min Rain = 0
KSW1 120054Z 15008KT 32/15 A3001 RMK A01 T03230148  RH  035%=      5-min Rain = 0
KSW1 120055Z 15008KT 32/15 A3001 RMK A01 T03230148  RH  035%=      5-min Rain = 0
KSW1 120056Z 14006KT 32/15 A3001 RMK A01 T03230149  RH  035%=      5-min Rain = 0
KSW1 120057Z 14006KT 32/15 A3001 RMK A01 T03230149  RH  035%=      5-min Rain = 0
KSW1 120058Z 14006KT 32/15 A3001 RMK A01 T03220149  RH  035%=      5-min Rain = 0
KSW1 120059Z 13006KT 32/15 A3001 RMK A01 T03220150  RH  035%=      5-min Rain = 0
KSW1 120100Z 14006KT 32/15 A3001 RMK A01 T03210150  RH  036%=      5-min Rain = 0
KSW1 120101Z 14007KT 32/15 A3001 RMK A01 T03210150  RH  036%=      5-min Rain = 0
KSW1 120102Z 15006KT 32/15 A3001 RMK A01 T03200150  RH  036%=      5-min Rain = 0
KSW1 120103Z 14006KT 32/15 A3001 RMK A01 T03200150  RH  036%=      5-min Rain = 0
KSW1 120104Z 14005KT 32/15 A3002 RMK A01 T03200151  RH  036%=      5-min Rain = 0
KSW1 120105Z 14005KT 32/15 A3002 RMK A01 T03190151  RH  036%=      5-min Rain = 0
KSW1 120106Z 14005KT 32/15 A3002 RMK A01 T03190151  RH  036%=      5-min Rain = 0
KSW1 120107Z 13005KT 32/15 A3002 RMK A01 T03180152  RH  037%=      5-min Rain = 0
KSW1 120108Z 14006KT 32/15 A3002 RMK A01 T03180153  RH  037%=      5-min Rain = 0
KSW1 120109Z 14006KT 32/15 A3002 RMK A01 T03170153  RH  037%=      5-min Rain = 0
KSW1 120110Z 14005KT 32/15 A3002 RMK A01 T03170154  RH  037%=      5-min Rain = 0
KSW1 120111Z 13005KT 32/16 A3002 RMK A01 T03170155  RH  038%=      5-min Rain = 0
KSW1 120112Z 14005KT 32/16 A3002 RMK A01 T03170155  RH  038%=      5-min Rain = 0
KSW1 120113Z 14006KT 32/16 A3002 RMK A01 T03160155  RH  038%=      5-min Rain = 0
KSW1 120114Z 13007KT 32/15 A3002 RMK A01 T03160154  RH  038%=      5-min Rain = 0
KSW1 120115Z 14006KT 32/15 A3002 RMK A01 T03150153  RH  038%=      5-min Rain = 0
KSW1 120116Z 14006KT 32/15 A3002 RMK A01 T03150154  RH  038%=      5-min Rain = 0
KSW1 120117Z 14006KT 32/15 A3002 RMK A01 T03150153  RH  038%=      5-min Rain = 0
KSW1 120118Z 14006KT 32/15 A3002 RMK A01 T03150154  RH  038%=      5-min Rain = 0
KSW1 120119Z 14007KT 32/15 A3002 RMK A01 T03150153  RH  038%=      5-min Rain = 0
KSW1 120120Z 15007KT 32/15 A3002 RMK A01 T03150154  RH  038%=      5-min Rain = 0
KSW1 120121Z 14007KT 32/15 A3002 RMK A01 T03150154  RH  038%=      5-min Rain = 0
KSW1 120122Z 14006KT 32/15 A3002 RMK A01 T03150153  RH  038%=      5-min Rain = 0
KSW1 120123Z 14006KT 32/15 A3002 RMK A01 T03150153  RH  038%=      5-min Rain = 0
KSW1 120124Z 14006KT 31/15 A3002 RMK A01 T03140153  RH  038%=      5-min Rain = 0
KSW1 120125Z 14007KT 31/15 A3002 RMK A01 T03140153  RH  038%=      5-min Rain = 0
KSW1 120126Z 13007KT 31/15 A3002 RMK A01 T03140153  RH  038%=      5-min Rain = 0
KSW1 120127Z 14007KT 31/15 A3002 RMK A01 T03130153  RH  038%=      5-min Rain = 0
KSW1 120128Z 13006KT 31/15 A3002 RMK A01 T03130154  RH  038%=      5-min Rain = 0
KSW1 120129Z 14008KT 31/15 A3002 RMK A01 T03120153  RH  038%=      5-min Rain = 0
KSW1 120130Z 13007KT 31/15 A3002 RMK A01 T03120152  RH  038%=      5-min Rain = 0
KSW1 120131Z 13008KT 31/15 A3002 RMK A01 T03120152  RH  038%=      5-min Rain = 0
KSW1 120132Z 13007KT 31/15 A3002 RMK A01 T03130151  RH  038%=      5-min Rain = 0
KSW1 120133Z 13007KT 31/15 A3002 RMK A01 T03130152  RH  038%=      5-min Rain = 0
KSW1 120134Z 13007KT 31/15 A3002 RMK A01 T03120152  RH  038%=      5-min Rain = 0
KSW1 120135Z 13007KT 31/15 A3002 RMK A01 T03110152  RH  038%=      5-min Rain = 0
KSW1 120136Z 13007KT 31/15 A3002 RMK A01 T03100152  RH  038%=      5-min Rain = 0
KSW1 120137Z 13007KT 31/15 A3002 RMK A01 T03100153  RH  039%=      5-min Rain = 0
KSW1 120138Z 13007KT 31/15 A3002 RMK A01 T03090152  RH  039%=      5-min Rain = 0
KSW1 120139Z 13007KT 31/15 A3002 RMK A01 T03090152  RH  039%=      5-min Rain = 0
KSW1 120140Z 13007KT 31/15 A3002 RMK A01 T03090152  RH  039%=      5-min Rain = 0
KSW1 120141Z 13007KT 31/15 A3002 RMK A01 T03090152  RH  039%=      5-min Rain = 0
KSW1 120142Z 13007KT 31/15 A3002 RMK A01 T03080152  RH  039%=      5-min Rain = 0
KSW1 120143Z 13007KT 31/15 A3002 RMK A01 T03070152  RH  039%=      5-min Rain = 0
KSW1 120144Z 13007KT 31/15 A3003 RMK A01 T03070152  RH  039%=      5-min Rain = 0
KSW1 120145Z 13007KT 31/15 A3003 RMK A01 T03060152  RH  039%=      5-min Rain = 0
KSW1 120146Z 13007KT 31/15 A3003 RMK A01 T03060152  RH  039%=      5-min Rain = 0
KSW1 120147Z 13007KT 31/15 A3003 RMK A01 T03050153  RH  040%=      5-min Rain = 0
KSW1 120148Z 13007KT 30/15 A3003 RMK A01 T03040152  RH  040%=      5-min Rain = 0
KSW1 120149Z 13006KT 30/15 A3003 RMK A01 T03040153  RH  040%=      5-min Rain = 0
KSW1 120150Z 13007KT 30/15 A3003 RMK A01 T03030153  RH  040%=      5-min Rain = 0
KSW1 120151Z 12006KT 30/15 A3003 RMK A01 T03020153  RH  040%=      5-min Rain = 0
KSW1 120152Z 13006KT 30/15 A3003 RMK A01 T03020153  RH  041%=      5-min Rain = 0
KSW1 120153Z 12006KT 30/15 A3003 RMK A01 T03000153  RH  041%=      5-min Rain = 0
KSW1 120154Z 12007KT 30/15 A3003 RMK A01 T03000152  RH  041%=      5-min Rain = 0
KSW1 120155Z 13007KT 30/15 A3003 RMK A01 T02990152  RH  041%=      5-min Rain = 0
KSW1 120156Z 12007KT 30/15 A3003 RMK A01 T02990152  RH  041%=      5-min Rain = 0
KSW1 120157Z 13006KT 30/15 A3003 RMK A01 T02990151  RH  041%=      5-min Rain = 0
KSW1 120158Z 13007KT 30/15 A3003 RMK A01 T02990151  RH  041%=      5-min Rain = 0
KSW1 120159Z 13007KT 30/15 A3003 RMK A01 T02990152  RH  041%=      5-min Rain = 0
KSW1 120200Z 12006KT 30/15 A3003 RMK A01 T02980154  RH  042%=      5-min Rain = 0
KSW1 120201Z 12006KT 30/16 A3003 RMK A01 T02970155  RH  042%=      5-min Rain = 0
KSW1 120202Z 12006KT 30/15 A3003 RMK A01 T02960154  RH  042%=      5-min Rain = 0
KSW1 120203Z 12006KT 30/15 A3003 RMK A01 T02960154  RH  042%=      5-min Rain = 0
KSW1 120204Z 12007KT 30/15 A3003 RMK A01 T02950154  RH  043%=      5-min Rain = 0
KSW1 120205Z 12007KT 29/16 A3003 RMK A01 T02940155  RH  043%=      5-min Rain = 0
KSW1 120206Z 12007KT 29/16 A3003 RMK A01 T02930155  RH  043%=      5-min Rain = 0
KSW1 120207Z 12007KT 29/16 A3003 RMK A01 T02930155  RH  043%=      5-min Rain = 0
KSW1 120208Z 12007KT 29/15 A3003 RMK A01 T02920154  RH  043%=      5-min Rain = 0
KSW1 120209Z 12007KT 29/15 A3003 RMK A01 T02920154  RH  043%=      5-min Rain = 0
KSW1 120210Z 12007KT 29/15 A3003 RMK A01 T02920154  RH  043%=      5-min Rain = 0
KSW1 120211Z 12007KT 29/16 A3003 RMK A01 T02920155  RH  043%=      5-min Rain = 0
KSW1 120212Z 12007KT 29/16 A3003 RMK A01 T02910155  RH  044%=      5-min Rain = 0
KSW1 120213Z 12007KT 29/16 A3003 RMK A01 T02900155  RH  044%=      5-min Rain = 0
KSW1 120214Z 12007KT 29/16 A3003 RMK A01 T02900155  RH  044%=      5-min Rain = 0
KSW1 120215Z 12007KT 29/15 A3004 RMK A01 T02890154  RH  044%=      5-min Rain = 0
KSW1 120216Z 12007KT 29/16 A3004 RMK A01 T02890155  RH  044%=      5-min Rain = 0
KSW1 120217Z 12007KT 29/16 A3004 RMK A01 T02880155  RH  044%=      5-min Rain = 0
KSW1 120218Z 12007KT 29/16 A3004 RMK A01 T02880155  RH  044%=      5-min Rain = 0
KSW1 120219Z 12007KT 29/16 A3004 RMK A01 T02880155  RH  044%=      5-min Rain = 0
KSW1 120220Z 12007KT 29/16 A3004 RMK A01 T02870155  RH  045%=      5-min Rain = 0
KSW1 120221Z 12007KT 29/15 A3004 RMK A01 T02870154  RH  044%=      5-min Rain = 0
KSW1 120222Z 12007KT 29/15 A3004 RMK A01 T02870154  RH  044%=      5-min Rain = 0
KSW1 120223Z 12008KT 29/15 A3004 RMK A01 T02870154  RH  044%=      5-min Rain = 0
KSW1 120224Z 12007KT 29/15 A3004 RMK A01 T02880154  RH  044%=      5-min Rain = 0
KSW1 120225Z 12007KT 29/16 A3004 RMK A01 T02880155  RH  044%=      5-min Rain = 0
KSW1 120226Z 12007KT 29/16 A3004 RMK A01 T02880155  RH  044%=      5-min Rain = 0
KSW1 120227Z 12007KT 29/16 A3004 RMK A01 T02870155  RH  045%=      5-min Rain = 0
KSW1 120228Z 12007KT 29/15 A3004 RMK A01 T02870154  RH  045%=      5-min Rain = 0
KSW1 120229Z 12008KT 29/15 A3004 RMK A01 T02860154  RH  045%=      5-min Rain = 0
KSW1 120230Z 12007KT 29/15 A3004 RMK A01 T02860154  RH  044%=      5-min Rain = 0
KSW1 120231Z 12007KT 29/15 A3004 RMK A01 T02870154  RH  044%=      5-min Rain = 0
KSW1 120232Z 12008KT 29/15 A3004 RMK A01 T02870154  RH  045%=      5-min Rain = 0
KSW1 120233Z 12007KT 29/16 A3005 RMK A01 T02870155  RH  045%=      5-min Rain = 0
KSW1 120234Z 12007KT 29/16 A3005 RMK A01 T02870155  RH  045%=      5-min Rain = 0
KSW1 120235Z 12007KT 29/16 A3005 RMK A01 T02860155  RH  045%=      5-min Rain = 0
KSW1 120236Z 12007KT 29/15 A3005 RMK A01 T02860154  RH  045%=      5-min Rain = 0
KSW1 120237Z 12007KT 29/16 A3005 RMK A01 T02860155  RH  045%=      5-min Rain = 0
KSW1 120238Z 13008KT 29/16 A3005 RMK A01 T02860155  RH  045%=      5-min Rain = 0
KSW1 120239Z 13007KT 29/16 A3005 RMK A01 T02860155  RH  045%=      5-min Rain = 0
KSW1 120240Z 13008KT 29/16 A3005 RMK A01 T02850155  RH  045%=      5-min Rain = 0
KSW1 120241Z 13008KT 29/16 A3005 RMK A01 T02850155  RH  045%=      5-min Rain = 0
KSW1 120242Z 13008KT 28/16 A3005 RMK A01 T02840155  RH  045%=      5-min Rain = 0
KSW1 120243Z 13008KT 28/16 A3005 RMK A01 T02840155  RH  046%=      5-min Rain = 0
KSW1 120244Z 13008KT 28/16 A3005 RMK A01 T02830155  RH  046%=      5-min Rain = 0
KSW1 120245Z 13008KT 28/16 A3005 RMK A01 T02830156  RH  046%=      5-min Rain = 0
KSW1 120246Z 13007KT 28/16 A3005 RMK A01 T02820156  RH  046%=      5-min Rain = 0
KSW1 120247Z 13008KT 28/16 A3005 RMK A01 T02810156  RH  046%=      5-min Rain = 0
KSW1 120248Z 13008KT 28/16 A3005 RMK A01 T02810156  RH  046%=      5-min Rain = 0
KSW1 120249Z 12008KT 28/16 A3005 RMK A01 T02810156  RH  047%=      5-min Rain = 0
KSW1 120250Z 12008KT 28/16 A3005 RMK A01 T02800156  RH  047%=      5-min Rain = 0
KSW1 120251Z 13007KT 28/16 A3005 RMK A01 T02800156  RH  047%=      5-min Rain = 0
KSW1 120252Z 13007KT 28/16 A3005 RMK A01 T02790156  RH  047%=      5-min Rain = 0
KSW1 120253Z 12007KT 28/16 A3005 RMK A01 T02790156  RH  047%=      5-min Rain = 0
KSW1 120254Z 13007KT 28/16 A3005 RMK A01 T02780156  RH  047%=      5-min Rain = 0
KSW1 120255Z 12008KT 28/16 A3005 RMK A01 T02780156  RH  047%=      5-min Rain = 0
KSW1 120256Z 12008KT 28/16 A3005 RMK A01 T02780156  RH  048%=      5-min Rain = 0
KSW1 120257Z 13008KT 28/16 A3005 RMK A01 T02770156  RH  048%=      5-min Rain = 0
KSW1 120258Z 12008KT 28/16 A3005 RMK A01 T02770156  RH  048%=      5-min Rain = 0
KSW1 120259Z 12008KT 28/16 A3005 RMK A01 T02770156  RH  048%=      5-min Rain = 0
KSW1 120300Z 12008KT 28/16 A3005 RMK A01 T02770157  RH  048%=      5-min Rain = 0
KSW1 120301Z 12008KT 28/16 A3005 RMK A01 T02780157  RH  048%=      5-min Rain = 0
KSW1 120302Z 13008KT 28/16 A3005 RMK A01 T02770157  RH  048%=      5-min Rain = 0
KSW1 120303Z 13008KT 28/16 A3005 RMK A01 T02770157  RH  048%=      5-min Rain = 0
KSW1 120304Z 13007KT 28/16 A3005 RMK A01 T02770157  RH  048%=      5-min Rain = 0
KSW1 120305Z 13008KT 28/16 A3005 RMK A01 T02770157  RH  048%=      5-min Rain = 0
KSW1 120306Z 13008KT 28/16 A3006 RMK A01 T02760157  RH  048%=      5-min Rain = 0
KSW1 120307Z 13008KT 28/16 A3006 RMK A01 T02760157  RH  048%=      5-min Rain = 0
KSW1 120308Z 12007KT 28/16 A3006 RMK A01 T02760157  RH  048%=      5-min Rain = 0
KSW1 120309Z 13007KT 28/16 A3006 RMK A01 T02760157  RH  048%=      5-min Rain = 0
KSW1 120310Z 12007KT 28/16 A3006 RMK A01 T02750157  RH  049%=      5-min Rain = 0
KSW1 120311Z 12008KT 27/16 A3006 RMK A01 T02740157  RH  049%=      5-min Rain = 0
KSW1 120312Z 12008KT 28/16 A3006 RMK A01 T02750157  RH  049%=      5-min Rain = 0
KSW1 120313Z 12008KT 28/16 A3006 RMK A01 T02750157  RH  049%=      5-min Rain = 0
KSW1 120314Z 12008KT 27/16 A3006 RMK A01 T02740157  RH  049%=      5-min Rain = 0
KSW1 120315Z 12008KT 28/16 A3006 RMK A01 T02750157  RH  049%=      5-min Rain = 0
KSW1 120316Z 13008KT 28/16 A3006 RMK A01 T02750157  RH  049%=      5-min Rain = 0
KSW1 120317Z 13008KT 28/16 A3006 RMK A01 T02750157  RH  049%=      5-min Rain = 0
KSW1 120318Z 13008KT 27/16 A3006 RMK A01 T02740157  RH  049%=      5-min Rain = 0
KSW1 120319Z 13008KT 27/16 A3006 RMK A01 T02740157  RH  049%=      5-min Rain = 0
KSW1 120320Z 13008KT 27/16 A3006 RMK A01 T02740157  RH  049%=      5-min Rain = 0
KSW1 120321Z 13008KT 27/16 A3006 RMK A01 T02730157  RH  049%=      5-min Rain = 0
KSW1 120322Z 12008KT 27/16 A3006 RMK A01 T02730157  RH  049%=      5-min Rain = 0
KSW1 120323Z 13008KT 27/16 A3006 RMK A01 T02730157  RH  049%=      5-min Rain = 0
KSW1 120324Z 13008KT 27/16 A3006 RMK A01 T02730157  RH  049%=      5-min Rain = 0
KSW1 120325Z 13008KT 27/16 A3006 RMK A01 T02730158  RH  049%=      5-min Rain = 0
KSW1 120326Z 13007KT 27/16 A3006 RMK A01 T02730157  RH  049%=      5-min Rain = 0
KSW1 120327Z 13007KT 27/16 A3006 RMK A01 T02730158  RH  049%=      5-min Rain = 0
KSW1 120328Z 13007KT 27/16 A3006 RMK A01 T02720158  RH  050%=      5-min Rain = 0
KSW1 120329Z 13007KT 27/16 A3006 RMK A01 T02720158  RH  050%=      5-min Rain = 0
KSW1 120330Z 13007KT 27/16 A3006 RMK A01 T02720158  RH  050%=      5-min Rain = 0
KSW1 120331Z 13007KT 27/16 A3006 RMK A01 T02710158  RH  050%=      5-min Rain = 0
KSW1 120332Z 13007KT 27/16 A3006 RMK A01 T02700159  RH  050%=      5-min Rain = 0
KSW1 120333Z 13007KT 27/16 A3007 RMK A01 T02690159  RH  051%=      5-min Rain = 0
KSW1 120334Z 13007KT 27/16 A3007 RMK A01 T02690159  RH  051%=      5-min Rain = 0
KSW1 120335Z 13007KT 27/16 A3007 RMK A01 T02680159  RH  051%=      5-min Rain = 0
KSW1 120336Z 12007KT 27/16 A3007 RMK A01 T02680159  RH  051%=      5-min Rain = 0
KSW1 120337Z 12007KT 27/16 A3007 RMK A01 T02680159  RH  051%=      5-min Rain = 0
KSW1 120338Z 13007KT 27/16 A3007 RMK A01 T02680159  RH  051%=      5-min Rain = 0
KSW1 120339Z 12007KT 27/16 A3007 RMK A01 T02680159  RH  051%=      5-min Rain = 0
KSW1 120340Z 13007KT 27/16 A3007 RMK A01 T02670160  RH  052%=      5-min Rain = 0
KSW1 120341Z 13007KT 27/16 A3007 RMK A01 T02670160  RH  052%=      5-min Rain = 0
KSW1 120342Z 12007KT 27/16 A3007 RMK A01 T02670160  RH  052%=      5-min Rain = 0
KSW1 120343Z 13007KT 27/16 A3007 RMK A01 T02660160  RH  052%=      5-min Rain = 0
KSW1 120344Z 13007KT 27/16 A3007 RMK A01 T02660160  RH  052%=      5-min Rain = 0
KSW1 120345Z 13007KT 27/16 A3007 RMK A01 T02660160  RH  052%=      5-min Rain = 0
KSW1 120346Z 13008KT 27/16 A3007 RMK A01 T02650160  RH  052%=      5-min Rain = 0
KSW1 120347Z 13008KT 27/16 A3007 RMK A01 T02650160  RH  052%=      5-min Rain = 0
KSW1 120348Z 13008KT 27/16 A3007 RMK A01 T02650160  RH  053%=      5-min Rain = 0
KSW1 120349Z 13009KT 26/16 A3007 RMK A01 T02640160  RH  053%=      5-min Rain = 0
KSW1 120350Z 13008KT 26/16 A3007 RMK A01 T02640160  RH  053%=      5-min Rain = 0
KSW1 120351Z 13008KT 26/16 A3007 RMK A01 T02640160  RH  053%=      5-min Rain = 0
KSW1 120352Z 12008KT 26/16 A3007 RMK A01 T02640160  RH  053%=      5-min Rain = 0
KSW1 120353Z 13008KT 26/16 A3007 RMK A01 T02640160  RH  053%=      5-min Rain = 0
KSW1 120354Z 13008KT 26/16 A3007 RMK A01 T02640160  RH  053%=      5-min Rain = 0
KSW1 120355Z 13008KT 26/16 A3007 RMK A01 T02640160  RH  053%=      5-min Rain = 0
KSW1 120356Z 13008KT 26/16 A3007 RMK A01 T02640160  RH  053%=      5-min Rain = 0
KSW1 120357Z 13008KT 27/16 A3007 RMK A01 T02650160  RH  053%=      5-min Rain = 0
KSW1 120358Z 13009KT 27/16 A3007 RMK A01 T02650160  RH  052%=      5-min Rain = 0
KSW1 120359Z 12008KT 27/16 A3007 RMK A01 T02660160  RH  052%=      5-min Rain = 0
KSW1 120400Z 13008KT 27/16 A3007 RMK A01 T02660160  RH  052%=      5-min Rain = 0
KSW1 120401Z 13008KT 27/16 A3007 RMK A01 T02660160  RH  052%=      5-min Rain = 0
KSW1 120402Z 13008KT 27/16 A3007 RMK A01 T02670160  RH  052%=      5-min Rain = 0
KSW1 120403Z 13007KT 27/16 A3007 RMK A01 T02670160  RH  052%=      5-min Rain = 0
KSW1 120404Z 13008KT 27/16 A3007 RMK A01 T02670160  RH  052%=      5-min Rain = 0
KSW1 120405Z 13007KT 27/16 A3007 RMK A01 T02670160  RH  052%=      5-min Rain = 0
KSW1 120406Z 13008KT 27/16 A3007 RMK A01 T02670160  RH  052%=      5-min Rain = 0
KSW1 120407Z 13008KT 27/16 A3007 RMK A01 T02670160  RH  052%=      5-min Rain = 0
KSW1 120408Z 13007KT 27/16 A3007 RMK A01 T02670160  RH  052%=      5-min Rain = 0
KSW1 120409Z 13008KT 27/16 A3007 RMK A01 T02670160  RH  052%=      5-min Rain = 0
KSW1 120410Z 13008KT 27/16 A3007 RMK A01 T02670160  RH  052%=      5-min Rain = 0
KSW1 120411Z 13008KT 27/16 A3007 RMK A01 T02670161  RH  052%=      5-min Rain = 0
KSW1 120412Z 13008KT 27/16 A3008 RMK A01 T02670160  RH  052%=      5-min Rain = 0
KSW1 120413Z 13008KT 27/16 A3007 RMK A01 T02670160  RH  052%=      5-min Rain = 0
KSW1 120414Z 13008KT 27/16 A3007 RMK A01 T02670160  RH  052%=      5-min Rain = 0
KSW1 120415Z 13008KT 27/16 A3007 RMK A01 T02670159  RH  051%=      5-min Rain = 0
KSW1 120416Z 13008KT 27/16 A3007 RMK A01 T02680158  RH  051%=      5-min Rain = 0
KSW1 120417Z 13008KT 27/16 A3007 RMK A01 T02680158  RH  051%=      5-min Rain = 0
KSW1 120418Z 13008KT 27/16 A3007 RMK A01 T02680158  RH  051%=      5-min Rain = 0
KSW1 120419Z 13008KT 27/16 A3007 RMK A01 T02690158  RH  051%=      5-min Rain = 0
KSW1 120420Z 13008KT 27/16 A3007 RMK A01 T02690158  RH  051%=      5-min Rain = 0
KSW1 120421Z 13008KT 27/16 A3007 RMK A01 T02690158  RH  050%=      5-min Rain = 0
KSW1 120422Z 13008KT 27/16 A3007 RMK A01 T02690158  RH  050%=      5-min Rain = 0
KSW1 120423Z 13009KT 27/16 A3007 RMK A01 T02690159  RH  051%=      5-min Rain = 0
KSW1 120424Z 13008KT 27/16 A3007 RMK A01 T02690158  RH  051%=      5-min Rain = 0
KSW1 120425Z 13008KT 27/16 A3007 RMK A01 T02680158  RH  051%=      5-min Rain = 0
KSW1 120426Z 13008KT 27/16 A3007 RMK A01 T02690159  RH  051%=      5-min Rain = 0
KSW1 120427Z 13009KT 27/16 A3007 RMK A01 T02690158  RH  051%=      5-min Rain = 0
KSW1 120428Z 13008KT 27/16 A3007 RMK A01 T02690158  RH  051%=      5-min Rain = 0
KSW1 120429Z 13008KT 27/16 A3007 RMK A01 T02700159  RH  051%=      5-min Rain = 0
KSW1 120430Z 14008KT 27/16 A3008 RMK A01 T02700159  RH  051%=      5-min Rain = 0
KSW1 120431Z 14009KT 27/16 A3008 RMK A01 T02700159  RH  051%=      5-min Rain = 0
KSW1 120432Z 14008KT 27/16 A3008 RMK A01 T02710159  RH  050%=      5-min Rain = 0
KSW1 120433Z 13008KT 27/16 A3008 RMK A01 T02720160  RH  050%=      5-min Rain = 0
KSW1 120434Z 14008KT 27/16 A3008 RMK A01 T02720160  RH  050%=      5-min Rain = 0
KSW1 120435Z 13008KT 27/16 A3008 RMK A01 T02720159  RH  050%=      5-min Rain = 0
KSW1 120436Z 14009KT 27/16 A3008 RMK A01 T02720160  RH  050%=      5-min Rain = 0
KSW1 120437Z 14008KT 27/16 A3008 RMK A01 T02730158  RH  050%=      5-min Rain = 0
KSW1 120438Z 14008KT 27/16 A3008 RMK A01 T02730159  RH  050%=      5-min Rain = 0
KSW1 120439Z 14008KT 27/16 A3008 RMK A01 T02740160  RH  050%=      5-min Rain = 0
KSW1 120440Z 14008KT 27/16 A3008 RMK A01 T02740159  RH  049%=      5-min Rain = 0
KSW1 120441Z 14008KT 27/16 A3008 RMK A01 T02740159  RH  049%=      5-min Rain = 0
KSW1 120442Z 14009KT 27/16 A3008 RMK A01 T02740159  RH  049%=      5-min Rain = 0
KSW1 120443Z 14008KT 27/16 A3008 RMK A01 T02740159  RH  049%=      5-min Rain = 0
KSW1 120444Z 15008KT 28/16 A3008 RMK A01 T02750159  RH  049%=      5-min Rain = 0
KSW1 120445Z 14008KT 28/16 A3008 RMK A01 T02760159  RH  049%=      5-min Rain = 0
KSW1 120446Z 14009KT 28/16 A3008 RMK A01 T02770160  RH  049%=      5-min Rain = 0
KSW1 120447Z 14009KT 28/16 A3008 RMK A01 T02780160  RH  049%=      5-min Rain = 0
KSW1 120448Z 14009KT 28/16 A3008 RMK A01 T02780159  RH  048%=      5-min Rain = 0
KSW1 120449Z 14009KT 28/16 A3008 RMK A01 T02800159  RH  048%=      5-min Rain = 0
KSW1 120450Z 14008KT 28/16 A3008 RMK A01 T02800160  RH  048%=      5-min Rain = 0
KSW1 120451Z 14009KT 28/16 A3008 RMK A01 T02800160  RH  048%=      5-min Rain = 0
KSW1 120452Z 14010KT 28/16 A3008 RMK A01 T02810160  RH  048%=      5-min Rain = 0
KSW1 120453Z 14010KT 28/16 A3008 RMK A01 T02810160  RH  048%=      5-min Rain = 0
KSW1 120454Z 14010KT 28/16 A3008 RMK A01 T02820161  RH  048%=      5-min Rain = 0
KSW1 120455Z 15010KT 28/16 A3008 RMK A01 T02830161  RH  048%=      5-min Rain = 0
KSW1 120456Z 14009KT 28/16 A3008 RMK A01 T02820161  RH  048%=      5-min Rain = 0
KSW1 120457Z 14009KT 28/16 A3008 RMK A01 T02820161  RH  048%=      5-min Rain = 0
KSW1 120458Z 14009KT 28/16 A3008 RMK A01 T02820161  RH  048%=      5-min Rain = 0
KSW1 120459Z 14010KT 28/16 A3008 RMK A01 T02820161  RH  048%=      5-min Rain = 0
KSW1 120500Z 14009KT 28/16 A3008 RMK A01 T02820161  RH  048%=      5-min Rain = 0

Page generated in 0.0336 seconds.